Time,TemperatureF,DewpointF,PressureIn,WindDirection,WindDirectionDegrees,WindSpeedMPH,WindSpeedGustMPH,Humidity,HourlyPrecipIn,Conditions,Clouds,dailyrainin,SoftwareType,DateUTC
2013-05-15 00:00:00,70.8,58.9,29.94,WSW,246,2.0,10.0,66,0.00,,,0.00,Wunderground v.1.15,2013-05-15 04:00:00,
2013-05-15 00:01:00,81.2,60.2,30.01,South,185,3.0,7.0,49,0.00,,,0.00,Wunderground v.1.15,2013-05-15 04:01:00,
2013-05-15 00:02:00,81.3,61.4,30.01,South,179,3.0,7.0,51,0.00,,,0.00,Wunderground v.1.15,2013-05-15 04:02:00,
2013-05-15 00:03:00,81.3,59.7,30.01,West,269,3.0,7.0,48,0.00,,,0.00,Wunderground v.1.15,2013-05-15 04:03:00,
2013-05-15 00:04:00,81.3,60.9,30.01,South,182,2.0,7.0,50,0.00,,,0.00,Wunderground v.1.15,2013-05-15 04:04:00,
2013-05-15 00:05:00,81.4,62.1,30.01,SSW,204,2.0,7.0,52,0.00,,,0.00,Wunderground v.1.15,2013-05-15 04:05:00,
2013-05-15 00:06:00,81.4,61.0,30.01,SSW,209,2.0,7.0,50,0.00,,,0.00,Wunderground v.1.15,2013-05-15 04:06:00,
2013-05-15 00:07:00,81.5,61.6,30.01,WSW,248,2.0,7.0,51,0.00,,,0.00,Wunderground v.1.15,2013-05-15 04:07:00,
2013-05-15 00:08:00,81.5,61.6,30.01,South,182,3.0,7.0,51,0.00,,,0.00,Wunderground v.1.15,2013-05-15 04:08:00,
2013-05-15 00:09:00,81.6,60.6,30.01,West,263,3.0,7.0,49,0.00,,,0.00,Wunderground v.1.15,2013-05-15 04:09:00,
2013-05-15 00:10:00,81.6,60.0,30.01,WSW,252,3.0,5.0,48,0.00,,,0.00,Wunderground v.1.15,2013-05-15 04:10:00,
2013-05-15 00:11:00,81.7,60.1,30.01,SW,234,3.0,5.0,48,0.00,,,0.00,Wunderground v.1.15,2013-05-15 04:11:00,
2013-05-15 00:12:00,81.7,60.7,30.01,WSW,238,3.0,5.0,49,0.00,,,0.00,Wunderground v.1.15,2013-05-15 04:12:00,
2013-05-15 00:13:00,81.8,59.6,30.01,NW,317,3.0,5.0,47,0.00,,,0.00,Wunderground v.1.15,2013-05-15 04:13:00,
2013-05-15 00:14:00,81.8,59.6,30.01,NW,304,3.0,5.0,47,0.00,,,0.00,Wunderground v.1.15,2013-05-15 04:14:00,
2013-05-15 00:15:00,81.8,60.8,30.01,WNW,288,3.0,6.0,49,0.00,,,0.00,Wunderground v.1.15,2013-05-15 04:15:00,
2013-05-15 00:16:00,81.8,60.2,30.01,South,187,3.0,8.0,48,0.00,,,0.00,Wunderground v.1.15,2013-05-15 04:16:00,
2013-05-15 00:17:00,81.8,60.2,30.01,SSW,192,4.0,8.0,48,0.00,,,0.00,Wunderground v.1.15,2013-05-15 04:17:00,
2013-05-15 00:18:00,81.8,60.8,30.01,SW,234,3.0,8.0,49,0.00,,,0.00,Wunderground v.1.15,2013-05-15 04:18:00,
2013-05-15 00:19:00,81.9,61.4,30.01,WNW,286,3.0,8.0,50,0.00,,,0.00,Wunderground v.1.15,2013-05-15 04:19:00,
2013-05-15 00:20:00,81.9,62.0,30.01,SW,217,3.0,3.0,51,0.00,,,0.00,Wunderground v.1.15,2013-05-15 04:20:00,
2013-05-15 00:21:00,81.8,60.2,30.01,SSW,213,3.0,3.0,48,0.00,,,0.00,Wunderground v.1.15,2013-05-15 04:21:00,
2013-05-15 00:22:00,81.8,60.8,30.01,SSW,213,3.0,3.0,49,0.00,,,0.00,Wunderground v.1.15,2013-05-15 04:22:00,
2013-05-15 00:23:00,81.8,60.8,30.01,West,281,2.0,3.0,49,0.00,,,0.00,Wunderground v.1.15,2013-05-15 04:23:00,
2013-05-15 00:24:00,81.8,60.2,30.01,SSW,211,2.0,4.0,48,0.00,,,0.00,Wunderground v.1.15,2013-05-15 04:24:00,
2013-05-15 00:25:00,81.9,59.7,30.01,NW,321,2.0,4.0,47,0.00,,,0.00,Wunderground v.1.15,2013-05-15 04:25:00,
2013-05-15 00:26:00,81.8,59.6,30.01,West,261,2.0,4.0,47,0.00,,,0.00,Wunderground v.1.15,2013-05-15 04:26:00,
2013-05-15 00:27:00,81.8,60.8,30.01,NNW,333,2.0,4.0,49,0.00,,,0.00,Wunderground v.1.15,2013-05-15 04:27:00,
2013-05-15 00:29:00,81.9,60.9,30.01,WSW,248,2.0,4.0,49,0.00,,,0.00,Wunderground v.1.15,2013-05-15 04:29:00,
2013-05-15 00:30:00,81.9,60.9,30.01,WSW,255,2.0,10.0,49,0.00,,,0.00,Wunderground v.1.15,2013-05-15 04:30:00,
2013-05-15 00:31:00,81.9,60.3,30.01,WNW,284,2.0,10.0,48,0.00,,,0.00,Wunderground v.1.15,2013-05-15 04:31:00,
2013-05-15 00:32:00,82.0,60.4,30.01,West,260,2.0,10.0,48,0.00,,,0.00,Wunderground v.1.15,2013-05-15 04:32:00,
2013-05-15 00:33:00,82.0,61.5,30.01,South,190,3.0,10.0,50,0.00,,,0.00,Wunderground v.1.15,2013-05-15 04:33:00,
2013-05-15 00:34:00,82.1,62.2,30.01,SSW,212,2.0,10.0,51,0.00,,,0.00,Wunderground v.1.15,2013-05-15 04:34:00,
2013-05-15 00:35:00,82.2,60.0,30.01,South,188,2.0,10.0,47,0.00,,,0.00,Wunderground v.1.15,2013-05-15 04:35:00,
2013-05-15 00:36:00,82.3,60.1,30.01,North,355,2.0,10.0,47,0.00,,,0.00,Wunderground v.1.15,2013-05-15 04:36:00,
2013-05-15 00:37:00,82.3,60.1,30.01,SW,236,2.0,10.0,47,0.00,,,0.00,Wunderground v.1.15,2013-05-15 04:37:00,
2013-05-15 00:38:00,82.3,59.4,30.01,WNW,300,2.0,10.0,46,0.00,,,0.00,Wunderground v.1.15,2013-05-15 04:38:00,
2013-05-15 00:39:00,82.2,60.6,30.01,West,259,2.0,10.0,48,0.00,,,0.00,Wunderground v.1.15,2013-05-15 04:39:00,
2013-05-15 00:40:00,82.3,60.6,30.01,West,277,2.0,5.0,48,0.00,,,0.00,Wunderground v.1.15,2013-05-15 04:40:00,
2013-05-15 00:41:00,82.3,60.1,30.01,WNW,303,2.0,5.0,47,0.00,,,0.00,Wunderground v.1.15,2013-05-15 04:41:00,
2013-05-15 00:42:00,82.3,61.2,30.01,WNW,297,2.0,5.0,49,0.00,,,0.00,Wunderground v.1.15,2013-05-15 04:42:00,
2013-05-15 00:43:00,82.3,60.6,30.01,WNW,293,2.0,5.0,48,0.00,,,0.00,Wunderground v.1.15,2013-05-15 04:43:00,
2013-05-15 00:44:00,82.2,60.0,30.01,NNW,328,3.0,5.0,47,0.00,,,0.00,Wunderground v.1.15,2013-05-15 04:44:00,
2013-05-15 00:45:00,82.2,61.1,30.01,West,273,3.0,5.0,49,0.00,,,0.00,Wunderground v.1.15,2013-05-15 04:45:00,
2013-05-15 00:46:00,82.3,61.8,30.00,NW,325,2.0,5.0,50,0.00,,,0.00,Wunderground v.1.15,2013-05-15 04:46:00,
2013-05-15 00:47:00,82.3,62.4,30.01,WNW,291,2.0,5.0,51,0.00,,,0.00,Wunderground v.1.15,2013-05-15 04:47:00,
2013-05-15 00:48:00,82.4,60.7,30.01,WNW,292,2.0,7.0,48,0.00,,,0.00,Wunderground v.1.15,2013-05-15 04:48:00,
2013-05-15 00:49:00,82.4,59.5,30.00,West,277,2.0,7.0,46,0.00,,,0.00,Wunderground v.1.15,2013-05-15 04:49:00,
2013-05-15 00:50:00,82.3,59.4,30.00,West,273,3.0,3.0,46,0.00,,,0.00,Wunderground v.1.15,2013-05-15 04:50:00,
2013-05-15 00:51:00,82.3,60.6,30.00,North,355,2.0,3.0,48,0.00,,,0.00,Wunderground v.1.15,2013-05-15 04:51:00,
2013-05-15 00:52:00,82.3,59.4,30.00,West,279,2.0,3.0,46,0.00,,,0.00,Wunderground v.1.15,2013-05-15 04:52:00,
2013-05-15 00:53:00,82.3,61.2,30.00,SW,227,2.0,3.0,49,0.00,,,0.00,Wunderground v.1.15,2013-05-15 04:53:00,
2013-05-15 00:54:00,82.3,60.6,30.00,WNW,298,2.0,3.0,48,0.00,,,0.00,Wunderground v.1.15,2013-05-15 04:54:00,
2013-05-15 00:55:00,82.3,59.4,30.00,South,182,3.0,4.0,46,0.00,,,0.00,Wunderground v.1.15,2013-05-15 04:55:00,
2013-05-15 00:56:00,82.3,60.1,30.00,WSW,238,3.0,7.0,47,0.00,,,0.00,Wunderground v.1.15,2013-05-15 04:56:00,
2013-05-15 00:57:00,82.3,59.4,30.00,WNW,298,3.0,7.0,46,0.00,,,0.00,Wunderground v.1.15,2013-05-15 04:57:00,
2013-05-15 00:58:00,82.3,59.4,30.00,NW,319,3.0,7.0,46,0.00,,,0.00,Wunderground v.1.15,2013-05-15 04:58:00,
2013-05-15 00:59:00,82.3,60.1,30.00,WNW,289,3.0,7.0,47,0.00,,,0.00,Wunderground v.1.15,2013-05-15 04:59:00,
2013-05-15 01:00:00,82.2,60.0,30.00,NNW,343,3.0,3.0,47,0.00,,,0.00,Wunderground v.1.15,2013-05-15 05:00:00,
2013-05-15 01:01:00,82.2,59.4,30.00,WSW,242,3.0,7.0,46,0.00,,,0.00,Wunderground v.1.15,2013-05-15 05:01:00,
2013-05-15 01:02:00,82.2,59.4,30.00,NW,325,3.0,7.0,46,0.00,,,0.00,Wunderground v.1.15,2013-05-15 05:02:00,
2013-05-15 01:03:00,82.2,59.4,30.00,SSW,211,3.0,7.0,46,0.00,,,0.00,Wunderground v.1.15,2013-05-15 05:03:00,
2013-05-15 01:04:00,82.3,60.6,30.00,SW,236,3.0,7.0,48,0.00,,,0.00,Wunderground v.1.15,2013-05-15 05:04:00,
2013-05-15 01:05:00,82.3,59.4,30.00,West,268,3.0,7.0,46,0.00,,,0.00,Wunderground v.1.15,2013-05-15 05:05:00,
2013-05-15 01:06:00,82.3,59.4,30.00,WNW,283,3.0,7.0,46,0.00,,,0.00,Wunderground v.1.15,2013-05-15 05:06:00,
2013-05-15 01:07:00,82.4,60.7,30.00,WNW,283,2.0,7.0,48,0.00,,,0.00,Wunderground v.1.15,2013-05-15 05:07:00,
2013-05-15 01:08:00,82.5,61.4,30.00,SW,219,2.0,7.0,49,0.00,,,0.00,Wunderground v.1.15,2013-05-15 05:08:00,
2013-05-15 01:09:00,82.7,61.6,30.00,SW,234,2.0,7.0,49,0.00,,,0.00,Wunderground v.1.15,2013-05-15 05:09:00,
2013-05-15 01:10:00,83.0,61.3,30.00,WSW,241,2.0,2.0,48,0.00,,,0.00,Wunderground v.1.15,2013-05-15 05:10:00,
2013-05-15 01:11:00,83.2,62.6,30.00,South,171,2.0,2.0,50,0.00,,,0.00,Wunderground v.1.15,2013-05-15 05:11:00,
2013-05-15 01:12:00,83.4,62.2,30.00,South,171,1.0,2.0,49,0.00,,,0.00,Wunderground v.1.15,2013-05-15 05:12:00,
2013-05-15 01:13:00,83.6,63.0,30.00,WSW,257,1.0,2.0,50,0.00,,,0.00,Wunderground v.1.15,2013-05-15 05:13:00,
2013-05-15 01:14:00,83.8,62.6,30.00,West,270,1.0,2.0,49,0.00,,,0.00,Wunderground v.1.15,2013-05-15 05:14:00,
2013-05-15 01:15:00,83.9,62.1,30.00,SSW,200,1.0,3.0,48,0.00,,,0.00,Wunderground v.1.15,2013-05-15 05:15:00,
2013-05-15 01:16:00,84.1,61.1,30.00,South,188,1.0,7.0,46,0.00,,,0.00,Wunderground v.1.15,2013-05-15 05:16:00,
2013-05-15 01:17:00,84.1,61.7,30.00,WNW,284,2.0,7.0,47,0.00,,,0.00,Wunderground v.1.15,2013-05-15 05:17:00,
2013-05-15 01:18:00,84.2,61.2,30.00,NW,310,2.0,7.0,46,0.00,,,0.00,Wunderground v.1.15,2013-05-15 05:18:00,
2013-05-15 01:19:00,84.3,61.9,30.00,South,189,2.0,7.0,47,0.00,,,0.00,Wunderground v.1.15,2013-05-15 05:19:00,
2013-05-15 01:20:00,84.4,62.6,30.00,South,190,2.0,2.0,48,0.00,,,0.00,Wunderground v.1.15,2013-05-15 05:20:00,
2013-05-15 01:22:00,84.6,61.5,30.00,SSW,213,2.0,4.0,46,0.00,,,0.00,Wunderground v.1.15,2013-05-15 05:22:00,
2013-05-15 01:24:00,84.5,60.2,30.00,WNW,292,2.0,4.0,44,0.00,,,0.00,Wunderground v.1.15,2013-05-15 05:24:00,
2013-05-15 01:25:00,69.6,59.0,29.95,SSW,201,2.0,4.0,69,0.00,,,0.00,Wunderground v.1.15,2013-05-15 05:25:00,
2013-05-15 01:26:00,84.3,60.6,30.00,SW,217,2.0,4.0,45,0.00,,,0.00,Wunderground v.1.15,2013-05-15 05:26:00,
2013-05-15 01:27:00,84.2,59.9,30.00,WSW,246,2.0,4.0,44,0.00,,,0.00,Wunderground v.1.15,2013-05-15 05:27:00,
2013-05-15 01:28:00,84.0,61.0,30.00,NNW,347,2.0,4.0,46,0.00,,,0.00,Wunderground v.1.15,2013-05-15 05:28:00,
2013-05-15 01:29:00,84.0,62.2,30.00,SW,218,2.0,4.0,48,0.00,,,0.00,Wunderground v.1.15,2013-05-15 05:29:00,
2013-05-15 01:30:00,69.4,59.2,29.95,SW,232,2.0,4.0,70,0.00,,,0.00,Wunderground v.1.15,2013-05-15 05:30:00,
2013-05-15 01:31:00,84.0,61.0,30.00,West,265,3.0,3.0,46,0.00,,,0.00,Wunderground v.1.15,2013-05-15 05:31:00,
2013-05-15 01:32:00,83.9,59.0,30.00,NW,307,3.0,3.0,43,0.00,,,0.00,Wunderground v.1.15,2013-05-15 05:32:00,
2013-05-15 01:33:00,83.8,61.4,30.00,NW,325,3.0,3.0,47,0.00,,,0.00,Wunderground v.1.15,2013-05-15 05:33:00,
2013-05-15 01:34:00,83.8,60.2,29.99,WNW,283,3.0,3.0,45,0.00,,,0.00,Wunderground v.1.15,2013-05-15 05:34:00,
2013-05-15 01:35:00,69.3,59.1,29.95,SW,226,2.0,5.0,70,0.00,,,0.00,Wunderground v.1.15,2013-05-15 05:35:00,
2013-05-15 01:36:00,83.6,59.4,30.00,West,266,3.0,3.0,44,0.00,,,0.00,Wunderground v.1.15,2013-05-15 05:36:00,
2013-05-15 01:37:00,69.2,59.0,29.95,SW,232,2.0,5.0,70,0.00,,,0.00,Wunderground v.1.15,2013-05-15 05:37:00,
2013-05-15 01:38:00,83.5,59.3,29.99,South,186,3.0,3.0,44,0.00,,,0.00,Wunderground v.1.15,2013-05-15 05:38:00,
2013-05-15 01:39:00,83.4,59.8,29.99,SW,219,3.0,3.0,45,0.00,,,0.00,Wunderground v.1.15,2013-05-15 05:39:00,
2013-05-15 01:40:00,69.2,59.0,29.95,WSW,242,2.0,5.0,70,0.00,,,0.00,Wunderground v.1.15,2013-05-15 05:40:00,
2013-05-15 01:41:00,69.1,58.9,29.95,WSW,238,2.0,5.0,70,0.00,,,0.00,Wunderground v.1.15,2013-05-15 05:41:00,
2013-05-15 01:42:00,83.6,60.6,29.99,SSW,206,2.0,4.0,46,0.00,,,0.00,Wunderground v.1.15,2013-05-15 05:42:00,
2013-05-15 01:43:00,83.6,59.4,29.99,WNW,296,3.0,4.0,44,0.00,,,0.00,Wunderground v.1.15,2013-05-15 05:43:00,
2013-05-15 01:44:00,83.7,60.7,29.99,NNW,340,3.0,4.0,46,0.00,,,0.00,Wunderground v.1.15,2013-05-15 05:44:00,
2013-05-15 01:45:00,69.0,58.8,29.95,SW,225,1.0,4.0,70,0.00,,,0.00,Wunderground v.1.15,2013-05-15 05:45:00,
2013-05-15 01:46:00,83.7,58.8,29.99,SW,227,2.0,4.0,43,0.00,,,0.00,Wunderground v.1.15,2013-05-15 05:46:00,
2013-05-15 01:47:00,83.7,59.5,29.99,West,274,2.0,4.0,44,0.00,,,0.00,Wunderground v.1.15,2013-05-15 05:47:00,
2013-05-15 01:48:00,83.6,59.4,29.99,WNW,296,2.0,4.0,44,0.00,,,0.00,Wunderground v.1.15,2013-05-15 05:48:00,
2013-05-15 01:49:00,83.7,59.5,29.99,WSW,254,2.0,4.0,44,0.00,,,0.00,Wunderground v.1.15,2013-05-15 05:49:00,
2013-05-15 01:50:00,68.9,58.7,29.95,South,188,1.0,4.0,70,0.00,,,0.00,Wunderground v.1.15,2013-05-15 05:50:00,
2013-05-15 01:51:00,83.8,59.6,29.99,WSW,242,2.0,3.0,44,0.00,,,0.00,Wunderground v.1.15,2013-05-15 05:51:00,
2013-05-15 01:52:00,68.9,59.1,29.95,South,182,1.0,4.0,71,0.00,,,0.00,Wunderground v.1.15,2013-05-15 05:52:00,
2013-05-15 01:53:00,84.2,61.8,29.99,WNW,296,2.0,4.0,47,0.00,,,0.00,Wunderground v.1.15,2013-05-15 05:53:00,
2013-05-15 01:55:00,84.5,62.7,29.99,NW,318,2.0,4.0,48,0.00,,,0.00,Wunderground v.1.15,2013-05-15 05:55:00,
2013-05-15 01:56:00,84.7,62.2,29.99,South,184,2.0,4.0,47,0.00,,,0.00,Wunderground v.1.15,2013-05-15 05:56:00,
2013-05-15 01:57:00,84.9,61.8,29.99,WSW,254,2.0,4.0,46,0.00,,,0.00,Wunderground v.1.15,2013-05-15 05:57:00,
2013-05-15 01:58:00,85.1,62.6,29.99,SSE,162,1.0,4.0,47,0.00,,,0.00,Wunderground v.1.15,2013-05-15 05:58:00,
2013-05-15 01:59:00,68.6,58.8,29.95,ESE,114,1.0,2.0,71,0.00,,,0.00,Wunderground v.1.15,2013-05-15 05:59:00,
2013-05-15 02:00:00,68.6,58.8,29.95,SW,223,1.0,8.0,71,0.00,,,0.00,Wunderground v.1.15,2013-05-15 06:00:00,
2013-05-15 02:01:00,85.3,62.2,29.99,SSW,207,2.0,4.0,46,0.00,,,0.00,Wunderground v.1.15,2013-05-15 06:01:00,
2013-05-15 02:02:00,68.6,58.8,29.95,SW,232,1.0,2.0,71,0.00,,,0.00,Wunderground v.1.15,2013-05-15 06:02:00,
2013-05-15 02:03:00,85.2,59.5,29.99,SW,232,2.0,5.0,42,0.00,,,0.00,Wunderground v.1.15,2013-05-15 06:03:00,
2013-05-15 02:04:00,85.2,60.8,29.99,South,188,2.0,5.0,44,0.00,,,0.00,Wunderground v.1.15,2013-05-15 06:04:00,
2013-05-15 02:05:00,85.3,60.9,29.99,SW,221,2.0,5.0,44,0.00,,,0.00,Wunderground v.1.15,2013-05-15 06:05:00,
2013-05-15 02:06:00,85.4,61.6,29.98,WSW,238,2.0,5.0,45,0.00,,,0.00,Wunderground v.1.15,2013-05-15 06:06:00,
2013-05-15 02:07:00,68.5,58.7,29.95,WSW,242,1.0,3.0,71,0.00,,,0.00,Wunderground v.1.15,2013-05-15 06:07:00,
2013-05-15 02:08:00,85.4,62.3,29.99,WNW,283,2.0,5.0,46,0.00,,,0.00,Wunderground v.1.15,2013-05-15 06:08:00,
2013-05-15 02:09:00,85.4,61.6,29.98,SSW,207,3.0,5.0,45,0.00,,,0.00,Wunderground v.1.15,2013-05-15 06:09:00,
2013-05-15 02:10:00,68.5,59.1,29.95,West,275,1.0,3.0,72,0.00,,,0.00,Wunderground v.1.15,2013-05-15 06:10:00,
2013-05-15 02:11:00,85.5,62.4,29.99,SSW,205,2.0,4.0,46,0.00,,,0.00,Wunderground v.1.15,2013-05-15 06:11:00,
2013-05-15 02:12:00,68.5,58.7,29.95,WSW,237,1.0,3.0,71,0.00,,,0.00,Wunderground v.1.15,2013-05-15 06:12:00,
2013-05-15 02:13:00,85.5,59.8,29.98,NW,306,3.0,4.0,42,0.00,,,0.00,Wunderground v.1.15,2013-05-15 06:13:00,
2013-05-15 02:14:00,68.4,59.0,29.95,SW,226,1.0,3.0,72,0.00,,,0.00,Wunderground v.1.15,2013-05-15 06:14:00,
2013-05-15 02:15:00,85.5,59.8,29.98,SSW,211,3.0,6.0,42,0.00,,,0.00,Wunderground v.1.15,2013-05-15 06:15:00,
2013-05-15 02:16:00,85.3,61.6,29.98,South,175,3.0,6.0,45,0.00,,,0.00,Wunderground v.1.15,2013-05-15 06:16:00,
2013-05-15 02:17:00,85.3,60.3,29.98,NE,35,4.0,6.0,43,0.00,,,0.00,Wunderground v.1.15,2013-05-15 06:17:00,
2013-05-15 02:18:00,68.3,58.9,29.95,WSW,244,1.0,3.0,72,0.00,,,0.00,Wunderground v.1.15,2013-05-15 06:18:00,
2013-05-15 02:19:00,85.2,59.5,29.98,SW,222,4.0,6.0,42,0.00,,,0.00,Wunderground v.1.15,2013-05-15 06:19:00,
2013-05-15 02:20:00,85.2,59.5,29.98,SSW,194,4.0,4.0,42,0.00,,,0.00,Wunderground v.1.15,2013-05-15 06:20:00,
2013-05-15 02:21:00,68.2,58.8,29.95,SW,233,1.0,3.0,72,0.00,,,0.00,Wunderground v.1.15,2013-05-15 06:21:00,
2013-05-15 02:22:00,85.1,60.7,29.98,SW,229,4.0,6.0,44,0.00,,,0.00,Wunderground v.1.15,2013-05-15 06:22:00,
2013-05-15 02:23:00,85.2,60.8,29.98,SSW,210,4.0,6.0,44,0.00,,,0.00,Wunderground v.1.15,2013-05-15 06:23:00,
2013-05-15 02:24:00,68.1,58.7,29.95,SW,214,1.0,4.0,72,0.00,,,0.00,Wunderground v.1.15,2013-05-15 06:24:00,
2013-05-15 02:25:00,85.3,61.6,29.98,SW,218,4.0,6.0,45,0.00,,,0.00,Wunderground v.1.15,2013-05-15 06:25:00,
2013-05-15 02:26:00,85.3,62.2,29.98,SSW,196,4.0,6.0,46,0.00,,,0.00,Wunderground v.1.15,2013-05-15 06:26:00,
2013-05-15 02:27:00,85.3,60.3,29.98,SSW,203,4.0,6.0,43,0.00,,,0.00,Wunderground v.1.15,2013-05-15 06:27:00,
2013-05-15 02:28:00,85.4,61.0,29.98,SSW,213,4.0,6.0,44,0.00,,,0.00,Wunderground v.1.15,2013-05-15 06:28:00,
2013-05-15 02:29:00,85.4,59.7,29.97,SW,224,4.0,6.0,42,0.00,,,0.00,Wunderground v.1.15,2013-05-15 06:29:00,
2013-05-15 02:30:00,68.0,59.0,29.95,SSW,211,1.0,4.0,73,0.00,,,0.00,Wunderground v.1.15,2013-05-15 06:30:00,
2013-05-15 02:31:00,68.0,59.0,29.95,South,176,1.0,4.0,73,0.00,,,0.00,Wunderground v.1.15,2013-05-15 06:31:00,
2013-05-15 02:32:00,85.4,59.7,29.98,SW,234,4.0,4.0,42,0.00,,,0.00,Wunderground v.1.15,2013-05-15 06:32:00,
2013-05-15 02:33:00,85.5,59.8,29.97,South,188,4.0,4.0,42,0.00,,,0.00,Wunderground v.1.15,2013-05-15 06:33:00,
2013-05-15 02:34:00,85.6,59.9,29.97,SE,140,4.0,4.0,42,0.00,,,0.00,Wunderground v.1.15,2013-05-15 06:34:00,
2013-05-15 02:35:00,85.6,59.9,29.97,SW,221,4.0,4.0,42,0.00,,,0.00,Wunderground v.1.15,2013-05-15 06:35:00,
2013-05-15 02:36:00,67.8,58.8,29.95,SW,222,2.0,5.0,73,0.00,,,0.00,Wunderground v.1.15,2013-05-15 06:36:00,
2013-05-15 02:37:00,85.7,60.0,29.97,West,269,3.0,4.0,42,0.00,,,0.00,Wunderground v.1.15,2013-05-15 06:37:00,
2013-05-15 02:38:00,85.7,60.0,29.97,WNW,303,3.0,4.0,42,0.00,,,0.00,Wunderground v.1.15,2013-05-15 06:38:00,
2013-05-15 02:39:00,85.8,60.1,29.97,SSW,197,3.0,4.0,42,0.00,,,0.00,Wunderground v.1.15,2013-05-15 06:39:00,
2013-05-15 02:40:00,67.6,58.6,29.95,SW,227,2.0,5.0,73,0.00,,,0.00,Wunderground v.1.15,2013-05-15 06:40:00,
2013-05-15 02:41:00,85.8,58.7,29.97,SSW,209,3.0,6.0,40,0.00,,,0.00,Wunderground v.1.15,2013-05-15 06:41:00,
2013-05-15 02:42:00,85.9,58.1,29.97,SSW,199,3.0,6.0,39,0.00,,,0.00,Wunderground v.1.15,2013-05-15 06:42:00,
2013-05-15 02:43:00,85.9,59.5,29.97,West,281,3.0,6.0,41,0.00,,,0.00,Wunderground v.1.15,2013-05-15 06:43:00,
2013-05-15 02:44:00,67.6,59.0,29.96,South,175,1.0,4.0,74,0.00,,,0.00,Wunderground v.1.15,2013-05-15 06:44:00,
2013-05-15 02:45:00,85.9,58.1,29.97,WSW,244,3.0,6.0,39,0.00,,,0.00,Wunderground v.1.15,2013-05-15 06:45:00,
2013-05-15 02:46:00,85.9,58.1,29.97,WSW,258,3.0,6.0,39,0.00,,,0.00,Wunderground v.1.15,2013-05-15 06:46:00,
2013-05-15 02:47:00,85.9,57.3,29.97,SSW,204,4.0,6.0,38,0.00,,,0.00,Wunderground v.1.15,2013-05-15 06:47:00,
2013-05-15 02:48:00,85.9,57.3,29.97,WNW,296,4.0,6.0,38,0.00,,,0.00,Wunderground v.1.15,2013-05-15 06:48:00,
2013-05-15 02:49:00,85.9,57.3,29.97,NW,308,4.0,6.0,38,0.00,,,0.00,Wunderground v.1.15,2013-05-15 06:49:00,
2013-05-15 02:50:00,85.8,56.5,29.97,West,275,4.0,4.0,37,0.00,,,0.00,Wunderground v.1.15,2013-05-15 06:50:00,
2013-05-15 02:51:00,85.7,57.9,29.97,NW,313,4.0,4.0,39,0.00,,,0.00,Wunderground v.1.15,2013-05-15 06:51:00,
2013-05-15 02:52:00,67.4,58.8,29.96,SW,215,1.0,1.0,74,0.00,,,0.00,Wunderground v.1.15,2013-05-15 06:52:00,
2013-05-15 02:53:00,85.7,58.6,29.97,WNW,296,3.0,4.0,40,0.00,,,0.00,Wunderground v.1.15,2013-05-15 06:53:00,
2013-05-15 02:54:00,67.4,58.8,29.96,SSW,207,1.0,1.0,74,0.00,,,0.00,Wunderground v.1.15,2013-05-15 06:54:00,
2013-05-15 02:55:00,85.6,56.3,29.96,West,268,3.0,4.0,37,0.00,,,0.00,Wunderground v.1.15,2013-05-15 06:55:00,
2013-05-15 02:56:00,85.4,57.6,29.97,WSW,238,3.0,4.0,39,0.00,,,0.00,Wunderground v.1.15,2013-05-15 06:56:00,
2013-05-15 02:57:00,85.4,57.6,29.96,WNW,296,3.0,4.0,39,0.00,,,0.00,Wunderground v.1.15,2013-05-15 06:57:00,
2013-05-15 02:58:00,85.4,57.6,29.96,NNW,327,3.0,4.0,39,0.00,,,0.00,Wunderground v.1.15,2013-05-15 06:58:00,
2013-05-15 02:59:00,85.4,57.6,29.96,NNW,327,3.0,4.0,39,0.00,,,0.00,Wunderground v.1.15,2013-05-15 06:59:00,
2013-05-15 03:00:00,67.2,58.6,29.95,West,268,1.0,6.0,74,0.00,,,0.00,Wunderground v.1.15,2013-05-15 07:00:00,
2013-05-15 03:01:00,67.2,59.0,29.96,West,268,1.0,6.0,75,0.00,,,0.00,Wunderground v.1.15,2013-05-15 07:01:00,
2013-05-15 03:02:00,67.2,58.6,29.96,WSW,254,1.0,1.0,74,0.00,,,0.00,Wunderground v.1.15,2013-05-15 07:02:00,
2013-05-15 03:03:00,85.9,60.1,29.96,West,266,3.0,3.0,42,0.00,,,0.00,Wunderground v.1.15,2013-05-15 07:03:00,
2013-05-15 03:05:00,86.2,60.4,29.96,SW,235,2.0,3.0,42,0.00,,,0.00,Wunderground v.1.15,2013-05-15 07:05:00,
2013-05-15 03:06:00,86.3,59.8,29.96,SSE,150,2.0,3.0,41,0.00,,,0.00,Wunderground v.1.15,2013-05-15 07:06:00,
2013-05-15 03:07:00,86.3,57.0,29.96,SSW,211,2.0,6.0,37,0.00,,,0.00,Wunderground v.1.15,2013-05-15 07:07:00,
2013-05-15 03:08:00,67.1,58.9,29.95,WSW,242,1.0,4.0,75,0.00,,,0.00,Wunderground v.1.15,2013-05-15 07:08:00,
2013-05-15 03:09:00,67.1,58.9,29.96,West,273,1.0,4.0,75,0.00,,,0.00,Wunderground v.1.15,2013-05-15 07:09:00,
2013-05-15 03:11:00,67.1,58.9,29.96,NW,310,1.0,4.0,75,0.00,,,0.00,Wunderground v.1.15,2013-05-15 07:11:00,
2013-05-15 03:12:00,86.2,59.0,29.96,West,271,4.0,4.0,40,0.00,,,0.00,Wunderground v.1.15,2013-05-15 07:12:00,
2013-05-15 03:13:00,86.2,56.9,29.96,SSW,205,4.0,4.0,37,0.00,,,0.00,Wunderground v.1.15,2013-05-15 07:13:00,
2013-05-15 03:14:00,86.2,57.6,29.95,ENE,67,4.0,4.0,38,0.00,,,0.00,Wunderground v.1.15,2013-05-15 07:14:00,
2013-05-15 03:15:00,86.2,58.3,29.95,SSW,213,4.0,4.0,39,0.00,,,0.00,Wunderground v.1.15,2013-05-15 07:15:00,
2013-05-15 03:16:00,86.2,59.7,29.95,SSW,205,4.0,4.0,41,0.00,,,0.00,Wunderground v.1.15,2013-05-15 07:16:00,
2013-05-15 03:17:00,67.1,58.9,29.95,South,173,1.0,5.0,75,0.00,,,0.00,Wunderground v.1.15,2013-05-15 07:17:00,
2013-05-15 03:18:00,86.3,58.4,29.95,WSW,247,4.0,10.0,39,0.00,,,0.00,Wunderground v.1.15,2013-05-15 07:18:00,
2013-05-15 03:19:00,86.4,57.8,29.95,North,349,3.0,10.0,38,0.00,,,0.00,Wunderground v.1.15,2013-05-15 07:19:00,
2013-05-15 03:20:00,86.4,58.5,29.95,NNW,338,3.0,6.0,39,0.00,,,0.00,Wunderground v.1.15,2013-05-15 07:20:00,
2013-05-15 03:21:00,67.1,58.9,29.95,SSW,202,1.0,5.0,75,0.00,,,0.00,Wunderground v.1.15,2013-05-15 07:21:00,
2013-05-15 03:22:00,86.5,59.3,29.95,SSW,206,3.0,6.0,40,0.00,,,0.00,Wunderground v.1.15,2013-05-15 07:22:00,
2013-05-15 03:23:00,67.0,58.8,29.95,WNW,298,1.0,1.0,75,0.00,,,0.00,Wunderground v.1.15,2013-05-15 07:23:00,
2013-05-15 03:24:00,86.6,59.4,29.95,SW,217,3.0,6.0,40,0.00,,,0.00,Wunderground v.1.15,2013-05-15 07:24:00,
2013-05-15 03:25:00,86.6,60.1,29.95,SW,223,3.0,8.0,41,0.00,,,0.00,Wunderground v.1.15,2013-05-15 07:25:00,
2013-05-15 03:26:00,67.0,58.8,29.96,WSW,237,1.0,1.0,75,0.00,,,0.00,Wunderground v.1.15,2013-05-15 07:26:00,
2013-05-15 03:27:00,86.4,55.5,29.95,SW,227,4.0,8.0,35,0.00,,,0.00,Wunderground v.1.15,2013-05-15 07:27:00,
2013-05-15 03:28:00,86.3,57.0,29.95,South,185,4.0,8.0,37,0.00,,,0.00,Wunderground v.1.15,2013-05-15 07:28:00,
2013-05-15 03:29:00,86.3,57.0,29.95,WSW,253,4.0,8.0,37,0.00,,,0.00,Wunderground v.1.15,2013-05-15 07:29:00,
2013-05-15 03:30:00,86.3,57.0,29.95,SSE,167,4.0,7.0,37,0.00,,,0.00,Wunderground v.1.15,2013-05-15 07:30:00,
2013-05-15 03:31:00,86.3,56.2,29.95,SW,225,4.0,7.0,36,0.00,,,0.00,Wunderground v.1.15,2013-05-15 07:31:00,
2013-05-15 03:32:00,86.2,54.5,29.95,NNW,329,4.0,7.0,34,0.00,,,0.00,Wunderground v.1.15,2013-05-15 07:32:00,
2013-05-15 03:33:00,86.2,54.5,29.95,WNW,292,4.0,7.0,34,0.00,,,0.00,Wunderground v.1.15,2013-05-15 07:33:00,
2013-05-15 03:34:00,66.9,58.7,29.96,SW,228,1.0,1.0,75,0.00,,,0.00,Wunderground v.1.15,2013-05-15 07:34:00,
2013-05-15 03:35:00,66.8,58.6,29.96,SW,221,1.0,1.0,75,0.00,,,0.00,Wunderground v.1.15,2013-05-15 07:35:00,
2013-05-15 03:40:00,66.8,58.6,29.96,WNW,286,1.0,4.0,75,0.00,,,0.00,Wunderground v.1.15,2013-05-15 07:40:00,
2013-05-15 03:42:00,66.7,58.5,29.96,West,261,1.0,2.0,75,0.00,,,0.00,Wunderground v.1.15,2013-05-15 07:42:00,
2013-05-15 03:43:00,86.3,53.0,29.94,South,184,4.0,5.0,32,0.00,,,0.00,Wunderground v.1.15,2013-05-15 07:43:00,
2013-05-15 03:44:00,66.6,58.4,29.96,WSW,246,1.0,2.0,75,0.00,,,0.00,Wunderground v.1.15,2013-05-15 07:44:00,
2013-05-15 03:45:00,66.6,58.8,29.96,South,184,1.0,2.0,76,0.00,,,0.00,Wunderground v.1.15,2013-05-15 07:45:00,
2013-05-15 03:46:00,86.2,52.9,29.95,SSW,213,4.0,6.0,32,0.00,,,0.00,Wunderground v.1.15,2013-05-15 07:46:00,
2013-05-15 03:47:00,86.1,53.6,29.94,WNW,285,4.0,6.0,33,0.00,,,0.00,Wunderground v.1.15,2013-05-15 07:47:00,
2013-05-15 03:49:00,86.0,54.4,29.94,SW,225,4.0,6.0,34,0.00,,,0.00,Wunderground v.1.15,2013-05-15 07:49:00,
2013-05-15 03:50:00,66.4,58.6,29.96,SSW,201,1.0,4.0,76,0.00,,,0.00,Wunderground v.1.15,2013-05-15 07:50:00,
2013-05-15 03:51:00,66.3,58.5,29.96,SW,231,1.0,4.0,76,0.00,,,0.00,Wunderground v.1.15,2013-05-15 07:51:00,
2013-05-15 03:52:00,86.1,54.5,29.94,NW,313,4.0,8.0,34,0.00,,,0.00,Wunderground v.1.15,2013-05-15 07:52:00,
2013-05-15 03:53:00,86.1,54.5,29.95,West,279,4.0,8.0,34,0.00,,,0.00,Wunderground v.1.15,2013-05-15 07:53:00,
2013-05-15 03:54:00,86.1,54.5,29.94,West,281,3.0,8.0,34,0.00,,,0.00,Wunderground v.1.15,2013-05-15 07:54:00,
2013-05-15 03:55:00,86.2,54.5,29.94,NW,312,3.0,8.0,34,0.00,,,0.00,Wunderground v.1.15,2013-05-15 07:55:00,
2013-05-15 03:56:00,86.3,54.6,29.94,WSW,250,3.0,8.0,34,0.00,,,0.00,Wunderground v.1.15,2013-05-15 07:56:00,
2013-05-15 03:57:00,66.3,58.5,29.96,SW,223,1.0,3.0,76,0.00,,,0.00,Wunderground v.1.15,2013-05-15 07:57:00,
2013-05-15 03:58:00,66.3,58.5,29.96,South,189,1.0,3.0,76,0.00,,,0.00,Wunderground v.1.15,2013-05-15 07:58:00,
2013-05-15 03:59:00,86.4,55.5,29.94,SSW,192,3.0,8.0,35,0.00,,,0.00,Wunderground v.1.15,2013-05-15 07:59:00,
2013-05-15 04:00:00,66.2,58.4,29.96,West,279,1.0,3.0,76,0.00,,,0.00,Wunderground v.1.15,2013-05-15 08:00:00,
2013-05-15 04:01:00,86.6,58.0,29.94,SW,221,3.0,11.0,38,0.00,,,0.00,Wunderground v.1.15,2013-05-15 08:01:00,
2013-05-15 04:02:00,66.1,58.3,29.96,SW,217,1.0,4.0,76,0.00,,,0.00,Wunderground v.1.15,2013-05-15 08:02:00,
2013-05-15 04:03:00,86.7,54.2,29.94,NNW,339,3.0,11.0,33,0.00,,,0.00,Wunderground v.1.15,2013-05-15 08:03:00,
2013-05-15 04:05:00,86.7,56.6,29.94,West,262,4.0,11.0,36,0.00,,,0.00,Wunderground v.1.15,2013-05-15 08:05:00,
2013-05-15 04:06:00,65.9,58.5,29.96,SW,220,1.0,3.0,77,0.00,,,0.00,Wunderground v.1.15,2013-05-15 08:06:00,
2013-05-15 04:07:00,86.6,57.2,29.95,SW,225,3.0,11.0,37,0.00,,,0.00,Wunderground v.1.15,2013-05-15 08:07:00,
2013-05-15 04:08:00,65.9,58.5,29.96,NW,309,2.0,3.0,77,0.00,,,0.00,Wunderground v.1.15,2013-05-15 08:08:00,
2013-05-15 04:09:00,86.5,55.6,29.94,SSW,207,3.0,11.0,35,0.00,,,0.00,Wunderground v.1.15,2013-05-15 08:09:00,
2013-05-15 04:10:00,65.9,58.5,29.96,SSE,160,2.0,3.0,77,0.00,,,0.00,Wunderground v.1.15,2013-05-15 08:10:00,
2013-05-15 04:11:00,65.9,58.5,29.96,SSW,198,2.0,3.0,77,0.00,,,0.00,Wunderground v.1.15,2013-05-15 08:11:00,
2013-05-15 04:12:00,86.6,55.7,29.94,SW,225,3.0,3.0,35,0.00,,,0.00,Wunderground v.1.15,2013-05-15 08:12:00,
2013-05-15 04:13:00,86.7,57.3,29.94,SSW,196,2.0,6.0,37,0.00,,,0.00,Wunderground v.1.15,2013-05-15 08:13:00,
2013-05-15 04:14:00,86.8,58.1,29.94,WSW,257,3.0,6.0,38,0.00,,,0.00,Wunderground v.1.15,2013-05-15 08:14:00,
2013-05-15 04:15:00,86.8,57.4,29.94,SE,128,3.0,6.0,37,0.00,,,0.00,Wunderground v.1.15,2013-05-15 08:15:00,
2013-05-15 04:16:00,86.9,57.5,29.94,WSW,247,2.0,6.0,37,0.00,,,0.00,Wunderground v.1.15,2013-05-15 08:16:00,
2013-05-15 04:17:00,65.8,58.4,29.96,WSW,246,1.0,2.0,77,0.00,,,0.00,Wunderground v.1.15,2013-05-15 08:17:00,
2013-05-15 04:18:00,65.9,58.5,29.96,SW,232,1.0,2.0,77,0.00,,,0.00,Wunderground v.1.15,2013-05-15 08:18:00,
2013-05-15 04:19:00,65.9,58.5,29.96,SW,226,1.0,2.0,77,0.00,,,0.00,Wunderground v.1.15,2013-05-15 08:19:00,
2013-05-15 04:20:00,86.9,59.0,29.94,West,269,2.0,3.0,39,0.00,,,0.00,Wunderground v.1.15,2013-05-15 08:20:00,
2013-05-15 04:21:00,86.9,59.0,29.94,WNW,300,2.0,3.0,39,0.00,,,0.00,Wunderground v.1.15,2013-05-15 08:21:00,
2013-05-15 04:22:00,65.8,58.4,29.96,West,278,1.0,1.0,77,0.00,,,0.00,Wunderground v.1.15,2013-05-15 08:22:00,
2013-05-15 04:23:00,86.9,58.2,29.94,West,263,3.0,7.0,38,0.00,,,0.00,Wunderground v.1.15,2013-05-15 08:23:00,
2013-05-15 04:24:00,65.8,58.4,29.96,SW,236,1.0,1.0,77,0.00,,,0.00,Wunderground v.1.15,2013-05-15 08:24:00,
2013-05-15 04:25:00,86.8,59.6,29.94,SW,216,3.0,7.0,40,0.00,,,0.00,Wunderground v.1.15,2013-05-15 08:25:00,
2013-05-15 04:26:00,86.8,58.1,29.94,NW,323,3.0,7.0,38,0.00,,,0.00,Wunderground v.1.15,2013-05-15 08:26:00,
2013-05-15 04:27:00,65.7,58.3,29.96,SW,225,1.0,1.0,77,0.00,,,0.00,Wunderground v.1.15,2013-05-15 08:27:00,
2013-05-15 04:28:00,86.8,59.6,29.94,West,277,3.0,7.0,40,0.00,,,0.00,Wunderground v.1.15,2013-05-15 08:28:00,
2013-05-15 04:29:00,86.8,59.6,29.93,SW,233,3.0,7.0,40,0.00,,,0.00,Wunderground v.1.15,2013-05-15 08:29:00,
2013-05-15 04:30:00,86.8,59.6,29.93,West,261,3.0,3.0,40,0.00,,,0.00,Wunderground v.1.15,2013-05-15 08:30:00,
2013-05-15 04:31:00,65.7,58.3,29.96,WNW,285,1.0,6.0,77,0.00,,,0.00,Wunderground v.1.15,2013-05-15 08:31:00,
2013-05-15 04:32:00,65.6,58.2,29.96,West,269,1.0,1.0,77,0.00,,,0.00,Wunderground v.1.15,2013-05-15 08:32:00,
2013-05-15 04:33:00,65.6,58.2,29.96,SW,217,1.0,1.0,77,0.00,,,0.00,Wunderground v.1.15,2013-05-15 08:33:00,
2013-05-15 04:34:00,86.8,58.9,29.93,South,172,3.0,3.0,39,0.00,,,0.00,Wunderground v.1.15,2013-05-15 08:34:00,
2013-05-15 04:35:00,86.9,59.7,29.94,South,175,2.0,3.0,40,0.00,,,0.00,Wunderground v.1.15,2013-05-15 08:35:00,
2013-05-15 04:36:00,65.8,58.4,29.96,WNW,300,1.0,2.0,77,0.00,,,0.00,Wunderground v.1.15,2013-05-15 08:36:00,
2013-05-15 04:37:00,87.1,59.8,29.93,SSW,204,2.0,3.0,40,0.00,,,0.00,Wunderground v.1.15,2013-05-15 08:37:00,
2013-05-15 04:38:00,65.9,58.5,29.96,West,275,1.0,2.0,77,0.00,,,0.00,Wunderground v.1.15,2013-05-15 08:38:00,
2013-05-15 04:39:00,87.1,58.4,29.93,SW,219,2.0,4.0,38,0.00,,,0.00,Wunderground v.1.15,2013-05-15 08:39:00,
2013-05-15 04:40:00,87.1,60.5,29.93,SSW,193,2.0,2.0,41,0.00,,,0.00,Wunderground v.1.15,2013-05-15 08:40:00,
2013-05-15 04:41:00,65.9,58.5,29.96,SW,224,1.0,5.0,77,0.00,,,0.00,Wunderground v.1.15,2013-05-15 08:41:00,
2013-05-15 04:42:00,65.9,58.5,29.96,WNW,284,1.0,1.0,77,0.00,,,0.00,Wunderground v.1.15,2013-05-15 08:42:00,
2013-05-15 04:43:00,87.0,58.3,29.93,SSW,202,1.0,2.0,38,0.00,,,0.00,Wunderground v.1.15,2013-05-15 08:43:00,
2013-05-15 04:44:00,87.0,59.0,29.93,SSW,202,1.0,2.0,39,0.00,,,0.00,Wunderground v.1.15,2013-05-15 08:44:00,
2013-05-15 04:45:00,65.8,58.4,29.96,SW,219,1.0,1.0,77,0.00,,,0.00,Wunderground v.1.15,2013-05-15 08:45:00,
2013-05-15 04:46:00,87.0,61.1,29.93,SW,230,1.0,2.0,42,0.00,,,0.00,Wunderground v.1.15,2013-05-15 08:46:00,
2013-05-15 04:47:00,87.0,61.1,29.93,SSW,211,1.0,2.0,42,0.00,,,0.00,Wunderground v.1.15,2013-05-15 08:47:00,
2013-05-15 04:48:00,87.0,59.0,29.93,South,184,1.0,4.0,39,0.00,,,0.00,Wunderground v.1.15,2013-05-15 08:48:00,
2013-05-15 04:49:00,87.0,59.0,29.93,WNW,286,1.0,4.0,39,0.00,,,0.00,Wunderground v.1.15,2013-05-15 08:49:00,
2013-05-15 04:50:00,86.9,60.4,29.93,WSW,239,1.0,4.0,41,0.00,,,0.00,Wunderground v.1.15,2013-05-15 08:50:00,
2013-05-15 04:51:00,86.9,59.0,29.93,South,180,2.0,4.0,39,0.00,,,0.00,Wunderground v.1.15,2013-05-15 08:51:00,
2013-05-15 04:52:00,65.7,58.3,29.96,SSW,210,1.0,3.0,77,0.00,,,0.00,Wunderground v.1.15,2013-05-15 08:52:00,
2013-05-15 04:53:00,86.8,59.6,29.93,South,180,2.0,4.0,40,0.00,,,0.00,Wunderground v.1.15,2013-05-15 08:53:00,
2013-05-15 04:54:00,86.8,58.1,29.93,WNW,292,2.0,4.0,38,0.00,,,0.00,Wunderground v.1.15,2013-05-15 08:54:00,
2013-05-15 04:55:00,86.7,58.1,29.93,WSW,246,2.0,4.0,38,0.00,,,0.00,Wunderground v.1.15,2013-05-15 08:55:00,
2013-05-15 04:56:00,86.7,58.8,29.93,South,172,3.0,5.0,39,0.00,,,0.00,Wunderground v.1.15,2013-05-15 08:56:00,
2013-05-15 04:57:00,65.6,58.2,29.96,SW,216,1.0,1.0,77,0.00,,,0.00,Wunderground v.1.15,2013-05-15 08:57:00,
2013-05-15 04:58:00,86.7,59.5,29.93,West,275,3.0,5.0,40,0.00,,,0.00,Wunderground v.1.15,2013-05-15 08:58:00,
2013-05-15 04:59:00,86.6,58.7,29.93,West,261,3.0,5.0,39,0.00,,,0.00,Wunderground v.1.15,2013-05-15 08:59:00,
2013-05-15 05:00:00,65.6,58.2,29.96,SSW,213,1.0,1.0,77,0.00,,,0.00,Wunderground v.1.15,2013-05-15 09:00:00,
2013-05-15 05:01:00,86.5,58.6,29.93,SSW,211,3.0,5.0,39,0.00,,,0.00,Wunderground v.1.15,2013-05-15 09:01:00,
2013-05-15 05:02:00,86.5,58.6,29.93,WSW,244,3.0,5.0,39,0.00,,,0.00,Wunderground v.1.15,2013-05-15 09:02:00,
2013-05-15 05:03:00,86.4,58.5,29.92,South,171,4.0,5.0,39,0.00,,,0.00,Wunderground v.1.15,2013-05-15 09:03:00,
2013-05-15 05:04:00,86.3,59.1,29.92,SSW,211,4.0,5.0,40,0.00,,,0.00,Wunderground v.1.15,2013-05-15 09:04:00,
2013-05-15 05:05:00,65.4,58.0,29.96,West,274,2.0,2.0,77,0.00,,,0.00,Wunderground v.1.15,2013-05-15 09:05:00,
2013-05-15 05:06:00,86.1,60.3,29.92,WSW,246,4.0,5.0,42,0.00,,,0.00,Wunderground v.1.15,2013-05-15 09:06:00,
2013-05-15 05:07:00,86.0,57.4,29.92,NW,306,4.0,9.0,38,0.00,,,0.00,Wunderground v.1.15,2013-05-15 09:07:00,
2013-05-15 05:08:00,65.4,58.0,29.97,SSW,193,1.0,3.0,77,0.00,,,0.00,Wunderground v.1.15,2013-05-15 09:08:00,
2013-05-15 05:09:00,65.4,58.0,29.97,West,281,1.0,3.0,77,0.00,,,0.00,Wunderground v.1.15,2013-05-15 09:09:00,
2013-05-15 05:10:00,85.7,57.9,29.92,SSW,207,4.0,5.0,39,0.00,,,0.00,Wunderground v.1.15,2013-05-15 09:10:00,
2013-05-15 05:11:00,85.7,57.9,29.92,SSW,196,3.0,5.0,39,0.00,,,0.00,Wunderground v.1.15,2013-05-15 09:11:00,
2013-05-15 05:12:00,85.6,59.2,29.92,WSW,254,3.0,5.0,41,0.00,,,0.00,Wunderground v.1.15,2013-05-15 09:12:00,
2013-05-15 05:13:00,85.6,59.2,29.92,SSW,197,3.0,5.0,41,0.00,,,0.00,Wunderground v.1.15,2013-05-15 09:13:00,
2013-05-15 05:14:00,65.4,58.0,29.97,South,186,1.0,5.0,77,0.00,,,0.00,Wunderground v.1.15,2013-05-15 09:14:00,
2013-05-15 05:15:00,85.6,57.8,29.92,SSW,201,3.0,6.0,39,0.00,,,0.00,Wunderground v.1.15,2013-05-15 09:15:00,
2013-05-15 05:16:00,65.5,58.1,29.97,SW,223,1.0,5.0,77,0.00,,,0.00,Wunderground v.1.15,2013-05-15 09:16:00,
2013-05-15 05:17:00,65.5,58.1,29.97,West,271,2.0,5.0,77,0.00,,,0.00,Wunderground v.1.15,2013-05-15 09:17:00,
2013-05-15 05:18:00,85.5,57.0,29.92,West,275,3.0,6.0,38,0.00,,,0.00,Wunderground v.1.15,2013-05-15 09:18:00,
2013-05-15 05:19:00,65.4,58.0,29.97,SW,230,1.0,5.0,77,0.00,,,0.00,Wunderground v.1.15,2013-05-15 09:19:00,
2013-05-15 05:20:00,85.5,57.7,29.92,SSW,196,3.0,3.0,39,0.00,,,0.00,Wunderground v.1.15,2013-05-15 09:20:00,
2013-05-15 05:21:00,65.4,58.0,29.97,West,263,1.0,5.0,77,0.00,,,0.00,Wunderground v.1.15,2013-05-15 09:21:00,
2013-05-15 05:22:00,65.4,58.0,29.97,West,267,1.0,5.0,77,0.00,,,0.00,Wunderground v.1.15,2013-05-15 09:22:00,
2013-05-15 05:23:00,85.5,57.0,29.92,SW,219,4.0,10.0,38,0.00,,,0.00,Wunderground v.1.15,2013-05-15 09:23:00,
2013-05-15 05:24:00,65.5,57.7,29.97,WSW,238,1.0,1.0,76,0.00,,,0.00,Wunderground v.1.15,2013-05-15 09:24:00,
2013-05-15 05:25:00,65.5,57.7,29.97,SSW,212,1.0,1.0,76,0.00,,,0.00,Wunderground v.1.15,2013-05-15 09:25:00,
2013-05-15 05:26:00,85.4,58.3,29.92,SSE,156,3.0,10.0,40,0.00,,,0.00,Wunderground v.1.15,2013-05-15 09:26:00,
2013-05-15 05:27:00,65.6,58.2,29.97,West,269,1.0,4.0,77,0.00,,,0.00,Wunderground v.1.15,2013-05-15 09:27:00,
2013-05-15 05:28:00,85.2,57.4,29.92,South,186,3.0,10.0,39,0.00,,,0.00,Wunderground v.1.15,2013-05-15 09:28:00,
2013-05-15 05:29:00,85.1,58.1,29.92,South,173,3.0,10.0,40,0.00,,,0.00,Wunderground v.1.15,2013-05-15 09:29:00,
2013-05-15 05:30:00,85.0,58.0,29.92,South,186,3.0,7.0,40,0.00,,,0.00,Wunderground v.1.15,2013-05-15 09:30:00,
2013-05-15 05:31:00,65.8,58.0,29.97,West,263,1.0,4.0,76,0.00,,,0.00,Wunderground v.1.15,2013-05-15 09:31:00,
2013-05-15 05:32:00,85.0,60.0,29.92,SW,225,2.0,7.0,43,0.00,,,0.00,Wunderground v.1.15,2013-05-15 09:32:00,
2013-05-15 05:33:00,65.8,58.0,29.97,SW,226,1.0,1.0,76,0.00,,,0.00,Wunderground v.1.15,2013-05-15 09:33:00,
2013-05-15 05:34:00,65.8,58.0,29.97,West,265,1.0,1.0,76,0.00,,,0.00,Wunderground v.1.15,2013-05-15 09:34:00,
2013-05-15 05:35:00,84.7,57.7,29.92,South,173,3.0,9.0,40,0.00,,,0.00,Wunderground v.1.15,2013-05-15 09:35:00,
2013-05-15 05:36:00,65.7,57.9,29.97,SW,223,2.0,4.0,76,0.00,,,0.00,Wunderground v.1.15,2013-05-15 09:36:00,
2013-05-15 05:37:00,84.5,58.2,29.92,WSW,239,3.0,9.0,41,0.00,,,0.00,Wunderground v.1.15,2013-05-15 09:37:00,
2013-05-15 05:38:00,84.4,56.7,29.92,NW,304,3.0,9.0,39,0.00,,,0.00,Wunderground v.1.15,2013-05-15 09:38:00,
2013-05-15 05:39:00,84.3,55.9,29.92,WNW,298,3.0,9.0,38,0.00,,,0.00,Wunderground v.1.15,2013-05-15 09:39:00,
2013-05-15 05:40:00,84.2,54.4,29.92,SW,221,3.0,4.0,36,0.00,,,0.00,Wunderground v.1.15,2013-05-15 09:40:00,
2013-05-15 05:41:00,65.6,57.8,29.97,WSW,240,2.0,4.0,76,0.00,,,0.00,Wunderground v.1.15,2013-05-15 09:41:00,
2013-05-15 05:42:00,65.6,58.2,29.97,SW,223,2.0,4.0,77,0.00,,,0.00,Wunderground v.1.15,2013-05-15 09:42:00,
2013-05-15 05:43:00,84.1,55.0,29.92,WNW,283,4.0,4.0,37,0.00,,,0.00,Wunderground v.1.15,2013-05-15 09:43:00,
2013-05-15 05:44:00,84.1,55.7,29.92,WNW,302,4.0,4.0,38,0.00,,,0.00,Wunderground v.1.15,2013-05-15 09:44:00,
2013-05-15 05:45:00,65.5,57.7,29.97,SW,221,2.0,6.0,76,0.00,,,0.00,Wunderground v.1.15,2013-05-15 09:45:00,
2013-05-15 05:46:00,83.9,54.8,29.92,SSE,168,3.0,4.0,37,0.00,,,0.00,Wunderground v.1.15,2013-05-15 09:46:00,
2013-05-15 05:47:00,65.5,57.7,29.97,WSW,257,2.0,6.0,76,0.00,,,0.00,Wunderground v.1.15,2013-05-15 09:47:00,
2013-05-15 05:48:00,84.0,56.4,29.92,SSW,211,3.0,4.0,39,0.00,,,0.00,Wunderground v.1.15,2013-05-15 09:48:00,
2013-05-15 05:49:00,65.5,57.7,29.97,West,267,2.0,6.0,76,0.00,,,0.00,Wunderground v.1.15,2013-05-15 09:49:00,
2013-05-15 05:50:00,84.0,56.4,29.92,West,260,2.0,2.0,39,0.00,,,0.00,Wunderground v.1.15,2013-05-15 09:50:00,
2013-05-15 05:51:00,84.1,57.9,29.92,SE,127,2.0,2.0,41,0.00,,,0.00,Wunderground v.1.15,2013-05-15 09:51:00,
2013-05-15 05:52:00,65.6,58.2,29.97,WSW,237,2.0,2.0,77,0.00,,,0.00,Wunderground v.1.15,2013-05-15 09:52:00,
2013-05-15 05:53:00,65.6,57.8,29.97,WSW,238,2.0,2.0,76,0.00,,,0.00,Wunderground v.1.15,2013-05-15 09:53:00,
2013-05-15 05:54:00,65.6,58.2,29.97,SW,220,2.0,2.0,77,0.00,,,0.00,Wunderground v.1.15,2013-05-15 09:54:00,
2013-05-15 05:55:00,84.2,58.6,29.91,SW,232,2.0,5.0,42,0.00,,,0.00,Wunderground v.1.15,2013-05-15 09:55:00,
2013-05-15 05:56:00,65.5,57.7,29.97,WSW,251,2.0,3.0,76,0.00,,,0.00,Wunderground v.1.15,2013-05-15 09:56:00,
2013-05-15 05:57:00,84.1,58.5,29.91,WNW,290,3.0,5.0,42,0.00,,,0.00,Wunderground v.1.15,2013-05-15 09:57:00,
2013-05-15 05:58:00,84.0,59.7,29.91,SW,225,3.0,5.0,44,0.00,,,0.00,Wunderground v.1.15,2013-05-15 09:58:00,
2013-05-15 05:59:00,65.4,58.0,29.98,West,265,1.0,3.0,77,0.00,,,0.00,Wunderground v.1.15,2013-05-15 09:59:00,
2013-05-15 06:00:00,65.4,58.0,29.97,WNW,292,1.0,3.0,77,0.00,,,0.00,Wunderground v.1.15,2013-05-15 10:00:00,
2013-05-15 06:01:00,65.4,57.6,29.98,WSW,237,1.0,5.0,76,0.00,,,0.00,Wunderground v.1.15,2013-05-15 10:01:00,
2013-05-15 06:02:00,83.8,58.3,29.91,SSW,201,3.0,6.0,42,0.00,,,0.00,Wunderground v.1.15,2013-05-15 10:02:00,
2013-05-15 06:03:00,65.4,57.6,29.98,West,271,1.0,1.0,76,0.00,,,0.00,Wunderground v.1.15,2013-05-15 10:03:00,
2013-05-15 06:04:00,83.7,59.5,29.91,SSE,165,3.0,8.0,44,0.00,,,0.00,Wunderground v.1.15,2013-05-15 10:04:00,
2013-05-15 06:05:00,65.4,57.6,29.98,West,273,1.0,2.0,76,0.00,,,0.00,Wunderground v.1.15,2013-05-15 10:05:00,
2013-05-15 06:06:00,83.6,60.0,29.91,SSE,153,3.0,8.0,45,0.00,,,0.00,Wunderground v.1.15,2013-05-15 10:06:00,
2013-05-15 06:07:00,83.5,59.9,29.91,SW,219,3.0,8.0,45,0.00,,,0.00,Wunderground v.1.15,2013-05-15 10:07:00,
2013-05-15 06:08:00,65.4,57.6,29.98,WSW,242,2.0,4.0,76,0.00,,,0.00,Wunderground v.1.15,2013-05-15 10:08:00,
2013-05-15 06:09:00,65.4,57.6,29.98,SW,218,2.0,4.0,76,0.00,,,0.00,Wunderground v.1.15,2013-05-15 10:09:00,
2013-05-15 06:10:00,65.5,57.7,29.98,SW,236,2.0,5.0,76,0.00,,,0.00,Wunderground v.1.15,2013-05-15 10:10:00,
2013-05-15 06:11:00,83.3,59.7,29.91,SW,215,3.0,8.0,45,0.00,,,0.00,Wunderground v.1.15,2013-05-15 10:11:00,
2013-05-15 06:12:00,83.2,59.0,29.91,West,279,4.0,8.0,44,0.00,,,0.00,Wunderground v.1.15,2013-05-15 10:12:00,
2013-05-15 06:13:00,65.4,57.6,29.98,West,267,2.0,4.0,76,0.00,,,0.00,Wunderground v.1.15,2013-05-15 10:13:00,
2013-05-15 06:14:00,83.1,58.9,29.91,SSW,192,4.0,8.0,44,0.00,,,0.00,Wunderground v.1.15,2013-05-15 10:14:00,
2013-05-15 06:15:00,65.5,57.7,29.98,SSW,209,2.0,4.0,76,0.00,,,0.00,Wunderground v.1.15,2013-05-15 10:15:00,
2013-05-15 06:16:00,65.5,57.7,29.98,West,259,2.0,4.0,76,0.00,,,0.00,Wunderground v.1.15,2013-05-15 10:16:00,
2013-05-15 06:17:00,83.0,59.5,29.91,South,169,4.0,8.0,45,0.00,,,0.00,Wunderground v.1.15,2013-05-15 10:17:00,
2013-05-15 06:18:00,83.0,60.1,29.91,West,277,4.0,8.0,46,0.00,,,0.00,Wunderground v.1.15,2013-05-15 10:18:00,
2013-05-15 06:19:00,65.5,57.7,29.98,NW,314,2.0,4.0,76,0.00,,,0.00,Wunderground v.1.15,2013-05-15 10:19:00,
2013-05-15 06:20:00,65.5,57.7,29.98,WNW,290,2.0,4.0,76,0.00,,,0.00,Wunderground v.1.15,2013-05-15 10:20:00,
2013-05-15 06:21:00,65.5,57.7,29.98,SW,236,2.0,4.0,76,0.00,,,0.00,Wunderground v.1.15,2013-05-15 10:21:00,
2013-05-15 06:22:00,82.7,58.6,29.91,WNW,292,4.0,12.0,44,0.00,,,0.00,Wunderground v.1.15,2013-05-15 10:22:00,
2013-05-15 06:23:00,82.7,58.6,29.91,WNW,290,4.0,12.0,44,0.00,,,0.00,Wunderground v.1.15,2013-05-15 10:23:00,
2013-05-15 06:24:00,82.7,58.6,29.91,SSW,209,4.0,12.0,44,0.00,,,0.00,Wunderground v.1.15,2013-05-15 10:24:00,
2013-05-15 06:25:00,82.7,59.2,29.91,NW,310,4.0,12.0,45,0.00,,,0.00,Wunderground v.1.15,2013-05-15 10:25:00,
2013-05-15 06:26:00,65.5,57.7,29.98,South,184,2.0,3.0,76,0.00,,,0.00,Wunderground v.1.15,2013-05-15 10:26:00,
2013-05-15 06:27:00,82.5,59.6,29.91,NW,307,4.0,12.0,46,0.00,,,0.00,Wunderground v.1.15,2013-05-15 10:27:00,
2013-05-15 06:28:00,65.5,57.7,29.98,South,178,2.0,3.0,76,0.00,,,0.00,Wunderground v.1.15,2013-05-15 10:28:00,
2013-05-15 06:29:00,65.4,57.6,29.98,WNW,296,1.0,3.0,76,0.00,,,0.00,Wunderground v.1.15,2013-05-15 10:29:00,
2013-05-15 06:30:00,65.5,57.7,29.98,West,276,2.0,3.0,76,0.00,,,0.00,Wunderground v.1.15,2013-05-15 10:30:00,
2013-05-15 06:31:00,82.5,59.0,29.91,South,169,4.0,5.0,45,0.00,,,0.00,Wunderground v.1.15,2013-05-15 10:31:00,
2013-05-15 06:32:00,82.5,59.6,29.92,SSW,205,3.0,5.0,46,0.00,,,0.00,Wunderground v.1.15,2013-05-15 10:32:00,
2013-05-15 06:33:00,82.6,60.3,29.92,SSW,197,3.0,5.0,47,0.00,,,0.00,Wunderground v.1.15,2013-05-15 10:33:00,
2013-05-15 06:34:00,65.5,57.7,29.98,SW,220,2.0,2.0,76,0.00,,,0.00,Wunderground v.1.15,2013-05-15 10:34:00,
2013-05-15 06:35:00,65.5,57.7,29.98,SW,220,2.0,2.0,76,0.00,,,0.00,Wunderground v.1.15,2013-05-15 10:35:00,
2013-05-15 06:36:00,65.4,57.6,29.98,NW,305,2.0,3.0,76,0.00,,,0.00,Wunderground v.1.15,2013-05-15 10:36:00,
2013-05-15 06:37:00,82.8,59.9,29.91,WNW,289,3.0,5.0,46,0.00,,,0.00,Wunderground v.1.15,2013-05-15 10:37:00,
2013-05-15 06:38:00,82.8,60.5,29.92,WSW,246,3.0,5.0,47,0.00,,,0.00,Wunderground v.1.15,2013-05-15 10:38:00,
2013-05-15 06:39:00,82.8,59.3,29.91,WNW,286,3.0,5.0,45,0.00,,,0.00,Wunderground v.1.15,2013-05-15 10:39:00,
2013-05-15 06:40:00,82.7,59.8,29.91,WSW,258,3.0,3.0,46,0.00,,,0.00,Wunderground v.1.15,2013-05-15 10:40:00,
2013-05-15 06:41:00,65.5,57.7,29.98,WSW,249,2.0,3.0,76,0.00,,,0.00,Wunderground v.1.15,2013-05-15 10:41:00,
2013-05-15 06:42:00,82.7,58.6,29.91,NNE,31,2.0,3.0,44,0.00,,,0.00,Wunderground v.1.15,2013-05-15 10:42:00,
2013-05-15 06:43:00,82.7,59.8,29.92,WSW,240,2.0,3.0,46,0.00,,,0.00,Wunderground v.1.15,2013-05-15 10:43:00,
2013-05-15 06:44:00,65.5,57.7,29.98,South,180,1.0,5.0,76,0.00,,,0.00,Wunderground v.1.15,2013-05-15 10:44:00,
2013-05-15 06:45:00,82.8,59.3,29.92,NW,315,2.0,3.0,45,0.00,,,0.00,Wunderground v.1.15,2013-05-15 10:45:00,
2013-05-15 06:46:00,65.5,57.7,29.98,SW,219,2.0,5.0,76,0.00,,,0.00,Wunderground v.1.15,2013-05-15 10:46:00,
2013-05-15 06:47:00,83.0,59.5,29.92,West,261,2.0,7.0,45,0.00,,,0.00,Wunderground v.1.15,2013-05-15 10:47:00,
2013-05-15 06:48:00,65.5,57.7,29.98,SSW,194,2.0,5.0,76,0.00,,,0.00,Wunderground v.1.15,2013-05-15 10:48:00,
2013-05-15 06:49:00,83.1,58.9,29.92,WNW,286,2.0,7.0,44,0.00,,,0.00,Wunderground v.1.15,2013-05-15 10:49:00,
2013-05-15 06:50:00,65.4,57.6,29.99,WSW,250,1.0,5.0,76,0.00,,,0.00,Wunderground v.1.15,2013-05-15 10:50:00,
2013-05-15 06:51:00,83.1,58.9,29.92,WSW,238,2.0,3.0,44,0.00,,,0.00,Wunderground v.1.15,2013-05-15 10:51:00,
2013-05-15 06:52:00,65.3,57.5,29.99,WNW,295,2.0,2.0,76,0.00,,,0.00,Wunderground v.1.15,2013-05-15 10:52:00,
2013-05-15 06:53:00,65.3,57.5,29.99,WSW,256,2.0,2.0,76,0.00,,,0.00,Wunderground v.1.15,2013-05-15 10:53:00,
2013-05-15 06:54:00,83.1,59.6,29.91,South,173,1.0,3.0,45,0.00,,,0.00,Wunderground v.1.15,2013-05-15 10:54:00,
2013-05-15 06:55:00,65.3,57.9,29.99,SSW,200,2.0,2.0,77,0.00,,,0.00,Wunderground v.1.15,2013-05-15 10:55:00,
2013-05-15 06:56:00,83.2,60.3,29.91,SW,220,1.0,6.0,46,0.00,,,0.00,Wunderground v.1.15,2013-05-15 10:56:00,
2013-05-15 06:57:00,65.3,57.5,29.99,SSW,194,2.0,2.0,76,0.00,,,0.00,Wunderground v.1.15,2013-05-15 10:57:00,
2013-05-15 06:58:00,83.1,59.6,29.92,West,281,1.0,6.0,45,0.00,,,0.00,Wunderground v.1.15,2013-05-15 10:58:00,
2013-05-15 06:59:00,65.3,57.9,29.99,WSW,243,2.0,4.0,77,0.00,,,0.00,Wunderground v.1.15,2013-05-15 10:59:00,
2013-05-15 07:00:00,65.3,57.9,29.99,WSW,238,2.0,4.0,77,0.00,,,0.00,Wunderground v.1.15,2013-05-15 11:00:00,
2013-05-15 07:01:00,82.9,58.7,29.91,WSW,250,2.0,6.0,44,0.00,,,0.00,Wunderground v.1.15,2013-05-15 11:01:00,
2013-05-15 07:02:00,82.9,59.4,29.91,South,171,2.0,6.0,45,0.00,,,0.00,Wunderground v.1.15,2013-05-15 11:02:00,
2013-05-15 07:03:00,65.4,58.0,29.99,WNW,298,2.0,8.0,77,0.00,,,0.00,Wunderground v.1.15,2013-05-15 11:03:00,
2013-05-15 07:04:00,82.6,59.7,29.92,SSE,162,2.0,6.0,46,0.00,,,0.00,Wunderground v.1.15,2013-05-15 11:04:00,
2013-05-15 07:05:00,82.5,60.2,29.91,WSW,245,2.0,6.0,47,0.00,,,0.00,Wunderground v.1.15,2013-05-15 11:05:00,
2013-05-15 07:06:00,65.3,57.9,29.99,WSW,244,2.0,8.0,77,0.00,,,0.00,Wunderground v.1.15,2013-05-15 11:06:00,
2013-05-15 07:07:00,82.3,58.2,29.92,WSW,247,2.0,6.0,44,0.00,,,0.00,Wunderground v.1.15,2013-05-15 11:07:00,
2013-05-15 07:08:00,82.2,58.1,29.91,WSW,254,2.0,6.0,44,0.00,,,0.00,Wunderground v.1.15,2013-05-15 11:08:00,
2013-05-15 07:09:00,65.4,58.0,29.99,SE,131,2.0,8.0,77,0.00,,,0.00,Wunderground v.1.15,2013-05-15 11:09:00,
2013-05-15 07:10:00,82.1,59.9,29.92,WNW,284,3.0,3.0,47,0.00,,,0.00,Wunderground v.1.15,2013-05-15 11:10:00,
2013-05-15 07:11:00,65.3,57.9,30.00,SW,216,1.0,8.0,77,0.00,,,0.00,Wunderground v.1.15,2013-05-15 11:11:00,
2013-05-15 07:12:00,81.8,58.4,29.92,WNW,294,3.0,3.0,45,0.00,,,0.00,Wunderground v.1.15,2013-05-15 11:12:00,
2013-05-15 07:13:00,81.7,58.3,29.92,WNW,286,3.0,8.0,45,0.00,,,0.00,Wunderground v.1.15,2013-05-15 11:13:00,
2013-05-15 07:14:00,81.7,58.3,29.92,SW,232,3.0,8.0,45,0.00,,,0.00,Wunderground v.1.15,2013-05-15 11:14:00,
2013-05-15 07:15:00,65.3,57.9,30.00,SSW,206,1.0,3.0,77,0.00,,,0.00,Wunderground v.1.15,2013-05-15 11:15:00,
2013-05-15 07:16:00,81.5,58.7,29.92,West,273,3.0,8.0,46,0.00,,,0.00,Wunderground v.1.15,2013-05-15 11:16:00,
2013-05-15 07:17:00,65.3,57.9,30.00,SSW,198,1.0,3.0,77,0.00,,,0.00,Wunderground v.1.15,2013-05-15 11:17:00,
2013-05-15 07:18:00,81.3,59.1,29.92,WSW,256,2.0,8.0,47,0.00,,,0.00,Wunderground v.1.15,2013-05-15 11:18:00,
2013-05-15 07:19:00,81.2,58.5,29.92,WSW,238,2.0,8.0,46,0.00,,,0.00,Wunderground v.1.15,2013-05-15 11:19:00,
2013-05-15 07:20:00,65.3,57.9,30.00,SSW,200,1.0,3.0,77,0.00,,,0.00,Wunderground v.1.15,2013-05-15 11:20:00,
2013-05-15 07:21:00,65.3,57.9,30.00,SSW,204,2.0,3.0,77,0.00,,,0.00,Wunderground v.1.15,2013-05-15 11:21:00,
2013-05-15 07:22:00,65.2,57.8,30.00,WSW,254,2.0,2.0,77,0.00,,,0.00,Wunderground v.1.15,2013-05-15 11:22:00,
2013-05-15 07:23:00,80.9,58.8,29.92,WSW,252,2.0,4.0,47,0.00,,,0.00,Wunderground v.1.15,2013-05-15 11:23:00,
2013-05-15 07:25:00,80.8,58.7,29.92,SW,216,2.0,8.0,47,0.00,,,0.00,Wunderground v.1.15,2013-05-15 11:25:00,
2013-05-15 07:26:00,65.2,57.8,30.00,SW,232,2.0,2.0,77,0.00,,,0.00,Wunderground v.1.15,2013-05-15 11:26:00,
2013-05-15 07:27:00,80.8,57.5,29.92,SW,217,3.0,8.0,45,0.00,,,0.00,Wunderground v.1.15,2013-05-15 11:27:00,
2013-05-15 07:28:00,80.8,58.1,29.92,SSW,197,3.0,8.0,46,0.00,,,0.00,Wunderground v.1.15,2013-05-15 11:28:00,
2013-05-15 07:29:00,65.3,57.9,30.00,NW,310,2.0,5.0,77,0.00,,,0.00,Wunderground v.1.15,2013-05-15 11:29:00,
2013-05-15 07:30:00,65.4,58.0,30.00,SW,229,2.0,5.0,77,0.00,,,0.00,Wunderground v.1.15,2013-05-15 11:30:00,
2013-05-15 07:31:00,80.8,58.7,29.92,West,273,3.0,3.0,47,0.00,,,0.00,Wunderground v.1.15,2013-05-15 11:31:00,
2013-05-15 07:32:00,80.7,59.2,29.92,West,281,3.0,3.0,48,0.00,,,0.00,Wunderground v.1.15,2013-05-15 11:32:00,
2013-05-15 07:33:00,65.6,58.2,30.00,WSW,244,2.0,2.0,77,0.00,,,0.00,Wunderground v.1.15,2013-05-15 11:33:00,
2013-05-15 07:34:00,80.6,58.5,29.92,SSW,208,2.0,4.0,47,0.00,,,0.00,Wunderground v.1.15,2013-05-15 11:34:00,
2013-05-15 07:35:00,65.6,58.2,30.00,WNW,284,2.0,2.0,77,0.00,,,0.00,Wunderground v.1.15,2013-05-15 11:35:00,
2013-05-15 07:36:00,65.8,58.4,30.00,SW,225,2.0,2.0,77,0.00,,,0.00,Wunderground v.1.15,2013-05-15 11:36:00,
2013-05-15 07:37:00,80.5,59.0,29.92,SW,227,2.0,4.0,48,0.00,,,0.00,Wunderground v.1.15,2013-05-15 11:37:00,
2013-05-15 07:38:00,80.4,58.9,29.92,SW,225,2.0,4.0,48,0.00,,,0.00,Wunderground v.1.15,2013-05-15 11:38:00,
2013-05-15 07:39:00,80.4,58.3,29.92,WNW,300,2.0,4.0,47,0.00,,,0.00,Wunderground v.1.15,2013-05-15 11:39:00,
2013-05-15 07:40:00,65.8,58.4,30.00,West,265,2.0,5.0,77,0.00,,,0.00,Wunderground v.1.15,2013-05-15 11:40:00,
2013-05-15 07:42:00,80.2,57.5,29.92,West,273,1.0,1.0,46,0.00,,,0.00,Wunderground v.1.15,2013-05-15 11:42:00,
2013-05-15 07:43:00,80.2,58.1,29.92,SW,223,1.0,1.0,47,0.00,,,0.00,Wunderground v.1.15,2013-05-15 11:43:00,
2013-05-15 07:44:00,80.1,58.6,29.92,SW,222,1.0,1.0,48,0.00,,,0.00,Wunderground v.1.15,2013-05-15 11:44:00,
2013-05-15 07:45:00,80.1,58.0,29.92,SSW,200,1.0,3.0,47,0.00,,,0.00,Wunderground v.1.15,2013-05-15 11:45:00,
2013-05-15 07:46:00,65.8,58.7,30.00,South,187,2.0,5.0,78,0.00,,,0.00,Wunderground v.1.15,2013-05-15 11:46:00,
2013-05-15 07:47:00,79.9,57.9,29.92,SW,222,1.0,3.0,47,0.00,,,0.00,Wunderground v.1.15,2013-05-15 11:47:00,
2013-05-15 07:48:00,65.8,58.4,30.00,SSW,198,2.0,5.0,77,0.00,,,0.00,Wunderground v.1.15,2013-05-15 11:48:00,
2013-05-15 07:49:00,79.8,58.4,29.92,West,276,2.0,3.0,48,0.00,,,0.00,Wunderground v.1.15,2013-05-15 11:49:00,
2013-05-15 07:50:00,79.7,57.7,29.92,SSW,208,2.0,4.0,47,0.00,,,0.00,Wunderground v.1.15,2013-05-15 11:50:00,
2013-05-15 07:51:00,79.6,57.6,29.92,SSW,199,2.0,4.0,47,0.00,,,0.00,Wunderground v.1.15,2013-05-15 11:51:00,
2013-05-15 07:52:00,65.8,58.4,30.01,NW,308,2.0,2.0,77,0.00,,,0.00,Wunderground v.1.15,2013-05-15 11:52:00,
2013-05-15 07:53:00,79.5,57.5,29.92,SW,217,2.0,7.0,47,0.00,,,0.00,Wunderground v.1.15,2013-05-15 11:53:00,
2013-05-15 07:54:00,65.8,58.4,30.01,SSW,202,2.0,3.0,77,0.00,,,0.00,Wunderground v.1.15,2013-05-15 11:54:00,
2013-05-15 07:55:00,79.6,58.2,29.92,South,188,2.0,7.0,48,0.00,,,0.00,Wunderground v.1.15,2013-05-15 11:55:00,
2013-05-15 07:56:00,79.6,58.2,29.92,SW,220,2.0,7.0,48,0.00,,,0.00,Wunderground v.1.15,2013-05-15 11:56:00,
2013-05-15 07:57:00,79.5,57.5,29.92,NW,319,2.0,7.0,47,0.00,,,0.00,Wunderground v.1.15,2013-05-15 11:57:00,
2013-05-15 07:58:00,79.4,56.8,29.92,SW,223,2.0,7.0,46,0.00,,,0.00,Wunderground v.1.15,2013-05-15 11:58:00,
2013-05-15 07:59:00,79.4,56.8,29.92,SSW,199,2.0,7.0,46,0.00,,,0.00,Wunderground v.1.15,2013-05-15 11:59:00,
2013-05-15 08:00:00,79.4,56.8,29.92,WSW,239,2.0,7.0,46,0.00,,,0.00,Wunderground v.1.15,2013-05-15 12:00:00,
2013-05-15 08:01:00,66.2,58.8,30.01,SSW,192,2.0,7.0,77,0.00,,,0.00,Wunderground v.1.15,2013-05-15 12:01:00,
2013-05-15 08:02:00,79.3,56.1,29.92,SW,218,2.0,7.0,45,0.00,,,0.00,Wunderground v.1.15,2013-05-15 12:02:00,
2013-05-15 08:03:00,79.3,55.5,29.92,SW,233,2.0,7.0,44,0.00,,,0.00,Wunderground v.1.15,2013-05-15 12:03:00,
2013-05-15 08:04:00,66.3,58.9,30.01,SSW,209,1.0,5.0,77,0.00,,,0.00,Wunderground v.1.15,2013-05-15 12:04:00,
2013-05-15 08:05:00,79.3,56.1,29.92,South,185,2.0,7.0,45,0.00,,,0.00,Wunderground v.1.15,2013-05-15 12:05:00,
2013-05-15 08:06:00,79.3,56.7,29.92,South,185,2.0,7.0,46,0.00,,,0.00,Wunderground v.1.15,2013-05-15 12:06:00,
2013-05-15 08:08:00,79.1,55.9,29.92,SW,236,2.0,7.0,45,0.00,,,0.00,Wunderground v.1.15,2013-05-15 12:08:00,
2013-05-15 08:09:00,66.7,58.9,30.01,SSE,161,2.0,5.0,76,0.00,,,0.00,Wunderground v.1.15,2013-05-15 12:09:00,
2013-05-15 08:10:00,78.9,56.4,29.92,WSW,253,2.0,2.0,46,0.00,,,0.00,Wunderground v.1.15,2013-05-15 12:10:00,
2013-05-15 08:11:00,78.8,56.3,29.92,WSW,253,2.0,2.0,46,0.00,,,0.00,Wunderground v.1.15,2013-05-15 12:11:00,
2013-05-15 08:12:00,78.7,56.2,29.92,SSW,193,2.0,2.0,46,0.00,,,0.00,Wunderground v.1.15,2013-05-15 12:12:00,
2013-05-15 08:13:00,78.6,56.7,29.92,SSW,193,1.0,2.0,47,0.00,,,0.00,Wunderground v.1.15,2013-05-15 12:13:00,
2013-05-15 08:14:00,78.5,56.0,29.92,SW,214,1.0,2.0,46,0.00,,,0.00,Wunderground v.1.15,2013-05-15 12:14:00,
2013-05-15 08:15:00,78.4,56.5,29.92,South,177,1.0,2.0,47,0.00,,,0.00,Wunderground v.1.15,2013-05-15 12:15:00,
2013-05-15 08:17:00,78.2,56.3,29.92,WSW,254,1.0,4.0,47,0.00,,,0.00,Wunderground v.1.15,2013-05-15 12:17:00,
2013-05-15 08:18:00,77.9,56.0,29.92,South,178,1.0,4.0,47,0.00,,,0.00,Wunderground v.1.15,2013-05-15 12:18:00,
2013-05-15 08:19:00,77.9,56.0,29.92,SSW,193,1.0,4.0,47,0.00,,,0.00,Wunderground v.1.15,2013-05-15 12:19:00,
2013-05-15 08:20:00,77.8,56.0,29.92,SW,230,1.0,3.0,47,0.00,,,0.00,Wunderground v.1.15,2013-05-15 12:20:00,
2013-05-15 08:21:00,77.6,55.8,29.92,SW,230,1.0,3.0,47,0.00,,,0.00,Wunderground v.1.15,2013-05-15 12:21:00,
2013-05-15 08:22:00,77.5,56.3,29.92,SW,230,1.0,3.0,48,0.00,,,0.00,Wunderground v.1.15,2013-05-15 12:22:00,
2013-05-15 08:23:00,67.6,59.0,30.02,West,259,2.0,2.0,74,0.00,,,0.00,Wunderground v.1.15,2013-05-15 12:23:00,
2013-05-15 08:24:00,77.3,55.5,29.92,WSW,252,1.0,3.0,47,0.00,,,0.00,Wunderground v.1.15,2013-05-15 12:24:00,
2013-05-15 08:25:00,77.2,56.0,29.92,SW,231,1.0,3.0,48,0.00,,,0.00,Wunderground v.1.15,2013-05-15 12:25:00,
2013-05-15 08:26:00,77.1,55.3,29.92,West,271,1.0,3.0,47,0.00,,,0.00,Wunderground v.1.15,2013-05-15 12:26:00,
2013-05-15 08:27:00,77.0,55.8,29.92,West,260,1.0,3.0,48,0.00,,,0.00,Wunderground v.1.15,2013-05-15 12:27:00,
2013-05-15 08:28:00,76.9,55.7,29.92,WSW,254,1.0,3.0,48,0.00,,,0.00,Wunderground v.1.15,2013-05-15 12:28:00,
2013-05-15 08:29:00,76.8,55.6,29.92,WSW,250,1.0,3.0,48,0.00,,,0.00,Wunderground v.1.15,2013-05-15 12:29:00,
2013-05-15 08:30:00,67.9,59.3,30.02,West,263,2.0,4.0,74,0.00,,,0.00,Wunderground v.1.15,2013-05-15 12:30:00,
2013-05-15 08:31:00,76.6,55.4,29.92,West,264,1.0,1.0,48,0.00,,,0.00,Wunderground v.1.15,2013-05-15 12:31:00,
2013-05-15 08:32:00,76.6,55.4,29.92,WSW,239,1.0,2.0,48,0.00,,,0.00,Wunderground v.1.15,2013-05-15 12:32:00,
2013-05-15 08:33:00,76.5,55.3,29.92,SW,234,1.0,2.0,48,0.00,,,0.00,Wunderground v.1.15,2013-05-15 12:33:00,
2013-05-15 08:34:00,76.4,55.8,29.92,SW,234,1.0,2.0,49,0.00,,,0.00,Wunderground v.1.15,2013-05-15 12:34:00,
2013-05-15 08:35:00,76.3,55.7,29.92,SW,225,1.0,2.0,49,0.00,,,0.00,Wunderground v.1.15,2013-05-15 12:35:00,
2013-05-15 08:37:00,76.1,56.1,29.92,NNW,336,1.0,2.0,50,0.00,,,0.00,Wunderground v.1.15,2013-05-15 12:37:00,
2013-05-15 08:38:00,68.2,59.6,30.02,South,179,1.0,6.0,74,0.00,,,0.00,Wunderground v.1.15,2013-05-15 12:38:00,
2013-05-15 08:39:00,75.9,55.4,29.92,WSW,240,1.0,4.0,49,0.00,,,0.00,Wunderground v.1.15,2013-05-15 12:39:00,
2013-05-15 08:40:00,75.8,55.3,29.92,WSW,240,1.0,1.0,49,0.00,,,0.00,Wunderground v.1.15,2013-05-15 12:40:00,
2013-05-15 08:41:00,75.8,55.8,29.92,WSW,240,1.0,1.0,50,0.00,,,0.00,Wunderground v.1.15,2013-05-15 12:41:00,
2013-05-15 08:42:00,75.7,55.2,29.92,SSW,196,1.0,1.0,49,0.00,,,0.00,Wunderground v.1.15,2013-05-15 12:42:00,
2013-05-15 08:43:00,75.6,55.6,29.92,SW,231,1.0,1.0,50,0.00,,,0.00,Wunderground v.1.15,2013-05-15 12:43:00,
2013-05-15 08:44:00,75.5,55.0,29.92,South,190,1.0,2.0,49,0.00,,,0.00,Wunderground v.1.15,2013-05-15 12:44:00,
2013-05-15 08:45:00,75.5,54.4,29.92,SSW,209,1.0,2.0,48,0.00,,,0.00,Wunderground v.1.15,2013-05-15 12:45:00,
2013-05-15 08:46:00,75.3,54.8,29.92,SSW,209,1.0,2.0,49,0.00,,,0.00,Wunderground v.1.15,2013-05-15 12:46:00,
2013-05-15 08:47:00,75.3,54.8,29.92,WSW,240,1.0,2.0,49,0.00,,,0.00,Wunderground v.1.15,2013-05-15 12:47:00,
2013-05-15 08:48:00,75.2,54.2,29.92,WNW,282,1.0,2.0,48,0.00,,,0.00,Wunderground v.1.15,2013-05-15 12:48:00,
2013-05-15 08:49:00,75.1,54.6,29.92,South,171,1.0,4.0,49,0.00,,,0.00,Wunderground v.1.15,2013-05-15 12:49:00,
2013-05-15 08:50:00,75.1,55.2,29.92,South,171,1.0,1.0,50,0.00,,,0.00,Wunderground v.1.15,2013-05-15 12:50:00,
2013-05-15 08:51:00,75.0,54.5,29.92,WSW,251,1.0,1.0,49,0.00,,,0.00,Wunderground v.1.15,2013-05-15 12:51:00,
2013-05-15 08:52:00,74.9,54.4,29.92,SW,217,1.0,2.0,49,0.00,,,0.00,Wunderground v.1.15,2013-05-15 12:52:00,
2013-05-15 08:53:00,74.9,53.9,29.92,SW,220,1.0,2.0,48,0.00,,,0.00,Wunderground v.1.15,2013-05-15 12:53:00,
2013-05-15 08:54:00,74.8,54.4,29.92,WSW,254,1.0,2.0,49,0.00,,,0.00,Wunderground v.1.15,2013-05-15 12:54:00,
2013-05-15 08:55:00,74.7,54.3,29.92,SW,225,1.0,2.0,49,0.00,,,0.00,Wunderground v.1.15,2013-05-15 12:55:00,
2013-05-15 08:56:00,74.7,54.3,29.92,SW,225,1.0,2.0,49,0.00,,,0.00,Wunderground v.1.15,2013-05-15 12:56:00,
2013-05-15 08:57:00,74.6,54.2,29.93,WSW,258,1.0,3.0,49,0.00,,,0.00,Wunderground v.1.15,2013-05-15 12:57:00,
2013-05-15 08:58:00,74.6,53.6,29.92,SW,229,1.0,3.0,48,0.00,,,0.00,Wunderground v.1.15,2013-05-15 12:58:00,
2013-05-15 08:59:00,74.5,54.1,29.93,South,190,1.0,3.0,49,0.00,,,0.00,Wunderground v.1.15,2013-05-15 12:59:00,
2013-05-15 09:00:00,74.5,53.5,29.93,South,190,1.0,1.0,48,0.00,,,0.00,Wunderground v.1.15,2013-05-15 13:00:00,
2013-05-15 09:01:00,74.4,54.0,29.93,SSW,207,1.0,1.0,49,0.00,,,0.00,Wunderground v.1.15,2013-05-15 13:01:00,
2013-05-15 09:02:00,74.4,54.5,29.93,WSW,256,1.0,3.0,50,0.00,,,0.00,Wunderground v.1.15,2013-05-15 13:02:00,
2013-05-15 09:03:00,74.4,53.4,29.93,WSW,240,1.0,3.0,48,0.00,,,0.00,Wunderground v.1.15,2013-05-15 13:03:00,
2013-05-15 09:04:00,74.4,54.0,29.93,South,181,1.0,3.0,49,0.00,,,0.00,Wunderground v.1.15,2013-05-15 13:04:00,
2013-05-15 09:05:00,74.3,53.9,29.93,SSE,163,1.0,3.0,49,0.00,,,0.00,Wunderground v.1.15,2013-05-15 13:05:00,
2013-05-15 09:06:00,74.3,53.3,29.93,SW,232,1.0,3.0,48,0.00,,,0.00,Wunderground v.1.15,2013-05-15 13:06:00,
2013-05-15 09:07:00,74.3,53.3,29.93,WSW,237,1.0,4.0,48,0.00,,,0.00,Wunderground v.1.15,2013-05-15 13:07:00,
2013-05-15 09:08:00,74.3,53.3,29.93,SW,235,1.0,4.0,48,0.00,,,0.00,Wunderground v.1.15,2013-05-15 13:08:00,
2013-05-15 09:09:00,74.3,53.3,29.93,SSW,199,1.0,4.0,48,0.00,,,0.00,Wunderground v.1.15,2013-05-15 13:09:00,
2013-05-15 09:10:00,74.3,53.9,29.93,SSW,199,1.0,1.0,49,0.00,,,0.00,Wunderground v.1.15,2013-05-15 13:10:00,
2013-05-15 09:11:00,74.3,53.3,29.93,West,268,1.0,5.0,48,0.00,,,0.00,Wunderground v.1.15,2013-05-15 13:11:00,
2013-05-15 09:12:00,74.3,53.9,29.93,SW,236,1.0,5.0,49,0.00,,,0.00,Wunderground v.1.15,2013-05-15 13:12:00,
2013-05-15 09:13:00,74.2,53.8,29.93,SSW,198,1.0,5.0,49,0.00,,,0.00,Wunderground v.1.15,2013-05-15 13:13:00,
2013-05-15 09:14:00,74.2,53.8,29.93,South,182,1.0,5.0,49,0.00,,,0.00,Wunderground v.1.15,2013-05-15 13:14:00,
2013-05-15 09:15:00,74.2,53.8,29.93,South,182,1.0,5.0,49,0.00,,,0.00,Wunderground v.1.15,2013-05-15 13:15:00,
2013-05-15 09:16:00,74.1,53.7,29.93,SW,221,1.0,5.0,49,0.00,,,0.00,Wunderground v.1.15,2013-05-15 13:16:00,
2013-05-15 09:17:00,74.0,53.6,29.93,SSW,211,1.0,5.0,49,0.00,,,0.00,Wunderground v.1.15,2013-05-15 13:17:00,
2013-05-15 09:18:00,74.0,53.6,29.93,SW,217,1.0,5.0,49,0.00,,,0.00,Wunderground v.1.15,2013-05-15 13:18:00,
2013-05-15 09:19:00,73.9,53.5,29.93,WNW,285,1.0,5.0,49,0.00,,,0.00,Wunderground v.1.15,2013-05-15 13:19:00,
2013-05-15 09:20:00,73.9,53.5,29.93,SW,214,1.0,1.0,49,0.00,,,0.00,Wunderground v.1.15,2013-05-15 13:20:00,
2013-05-15 09:21:00,73.8,53.4,29.93,SW,229,1.0,1.0,49,0.00,,,0.00,Wunderground v.1.15,2013-05-15 13:21:00,
2013-05-15 09:22:00,73.8,53.4,29.93,SSW,205,1.0,1.0,49,0.00,,,0.00,Wunderground v.1.15,2013-05-15 13:22:00,
2013-05-15 09:23:00,73.7,53.9,29.93,SW,235,1.0,1.0,50,0.00,,,0.00,Wunderground v.1.15,2013-05-15 13:23:00,
2013-05-15 09:24:00,73.6,53.3,29.93,WSW,238,1.0,1.0,49,0.00,,,0.00,Wunderground v.1.15,2013-05-15 13:24:00,
2013-05-15 09:25:00,73.5,53.7,29.93,SW,228,1.0,1.0,50,0.00,,,0.00,Wunderground v.1.15,2013-05-15 13:25:00,
2013-05-15 09:26:00,73.5,53.7,29.92,SW,225,1.0,1.0,50,0.00,,,0.00,Wunderground v.1.15,2013-05-15 13:26:00,
2013-05-15 09:27:00,73.5,53.7,29.93,SW,225,1.0,1.0,50,0.00,,,0.00,Wunderground v.1.15,2013-05-15 13:27:00,
2013-05-15 09:28:00,73.4,53.6,29.93,SW,232,1.0,1.0,50,0.00,,,0.00,Wunderground v.1.15,2013-05-15 13:28:00,
2013-05-15 09:29:00,73.3,53.5,29.93,SSW,206,1.0,1.0,50,0.00,,,0.00,Wunderground v.1.15,2013-05-15 13:29:00,
2013-05-15 09:30:00,73.3,53.5,29.93,SSW,206,1.0,1.0,50,0.00,,,0.00,Wunderground v.1.15,2013-05-15 13:30:00,
2013-05-15 09:31:00,73.2,53.4,29.93,SSW,206,1.0,1.0,50,0.00,,,0.00,Wunderground v.1.15,2013-05-15 13:31:00,
2013-05-15 09:32:00,73.1,53.9,29.93,SW,216,1.0,1.0,51,0.00,,,0.00,Wunderground v.1.15,2013-05-15 13:32:00,
2013-05-15 09:33:00,73.1,53.4,29.93,SSW,210,1.0,2.0,50,0.00,,,0.00,Wunderground v.1.15,2013-05-15 13:33:00,
2013-05-15 09:34:00,73.0,53.8,29.93,South,190,1.0,2.0,51,0.00,,,0.00,Wunderground v.1.15,2013-05-15 13:34:00,
2013-05-15 09:36:00,72.9,53.7,29.93,SSW,194,1.0,3.0,51,0.00,,,0.00,Wunderground v.1.15,2013-05-15 13:36:00,
2013-05-15 09:37:00,72.8,53.6,29.93,SW,225,1.0,3.0,51,0.00,,,0.00,Wunderground v.1.15,2013-05-15 13:37:00,
2013-05-15 09:38:00,72.7,53.5,29.93,SW,225,1.0,3.0,51,0.00,,,0.00,Wunderground v.1.15,2013-05-15 13:38:00,
2013-05-15 09:39:00,72.7,53.5,29.93,SW,225,1.0,3.0,51,0.00,,,0.00,Wunderground v.1.15,2013-05-15 13:39:00,
2013-05-15 09:40:00,72.6,53.4,29.93,WSW,239,1.0,3.0,51,0.00,,,0.00,Wunderground v.1.15,2013-05-15 13:40:00,
2013-05-15 09:41:00,72.6,53.4,29.93,SW,229,1.0,3.0,51,0.00,,,0.00,Wunderground v.1.15,2013-05-15 13:41:00,
2013-05-15 09:43:00,72.5,53.9,29.93,West,281,1.0,4.0,52,0.00,,,0.00,Wunderground v.1.15,2013-05-15 13:43:00,
2013-05-15 09:44:00,72.4,53.8,29.93,West,281,1.0,4.0,52,0.00,,,0.00,Wunderground v.1.15,2013-05-15 13:44:00,
2013-05-15 09:45:00,72.4,53.8,29.93,SE,137,1.0,4.0,52,0.00,,,0.00,Wunderground v.1.15,2013-05-15 13:45:00,
2013-05-15 09:46:00,72.3,53.7,29.93,SE,136,1.0,4.0,52,0.00,,,0.00,Wunderground v.1.15,2013-05-15 13:46:00,
2013-05-15 09:47:00,72.3,53.7,29.93,South,187,1.0,4.0,52,0.00,,,0.00,Wunderground v.1.15,2013-05-15 13:47:00,
2013-05-15 09:48:00,72.3,53.7,29.93,WSW,241,1.0,4.0,52,0.00,,,0.00,Wunderground v.1.15,2013-05-15 13:48:00,
2013-05-15 09:49:00,72.2,53.6,29.93,SW,234,1.0,4.0,52,0.00,,,0.00,Wunderground v.1.15,2013-05-15 13:49:00,
2013-05-15 09:50:00,72.2,53.6,29.93,WSW,239,1.0,1.0,52,0.00,,,0.00,Wunderground v.1.15,2013-05-15 13:50:00,
2013-05-15 09:51:00,72.2,53.6,29.93,SSW,205,1.0,1.0,52,0.00,,,0.00,Wunderground v.1.15,2013-05-15 13:51:00,
2013-05-15 09:52:00,72.2,53.6,29.93,South,188,1.0,1.0,52,0.00,,,0.00,Wunderground v.1.15,2013-05-15 13:52:00,
2013-05-15 09:53:00,72.2,54.1,29.93,SW,215,1.0,1.0,53,0.00,,,0.00,Wunderground v.1.15,2013-05-15 13:53:00,
2013-05-15 09:54:00,72.1,54.0,29.93,WSW,246,1.0,1.0,53,0.00,,,0.00,Wunderground v.1.15,2013-05-15 13:54:00,
2013-05-15 09:55:00,72.1,54.0,29.93,WSW,246,1.0,1.0,53,0.00,,,0.00,Wunderground v.1.15,2013-05-15 13:55:00,
2013-05-15 09:56:00,72.0,53.9,29.93,WSW,246,1.0,1.0,53,0.00,,,0.00,Wunderground v.1.15,2013-05-15 13:56:00,
2013-05-15 09:57:00,72.0,53.9,29.93,WSW,246,1.0,1.0,53,0.00,,,0.00,Wunderground v.1.15,2013-05-15 13:57:00,
2013-05-15 09:58:00,71.9,53.8,29.93,WSW,246,1.0,1.0,53,0.00,,,0.00,Wunderground v.1.15,2013-05-15 13:58:00,
2013-05-15 09:59:00,71.9,53.8,29.94,WSW,246,1.0,1.0,53,0.00,,,0.00,Wunderground v.1.15,2013-05-15 13:59:00,
2013-05-15 10:00:00,71.9,53.8,29.93,SSW,202,1.0,2.0,53,0.00,,,0.00,Wunderground v.1.15,2013-05-15 14:00:00,
2013-05-15 10:01:00,71.8,53.7,29.93,WSW,254,1.0,2.0,53,0.00,,,0.00,Wunderground v.1.15,2013-05-15 14:01:00,
2013-05-15 10:02:00,71.8,53.7,29.94,SW,225,1.0,2.0,53,0.00,,,0.00,Wunderground v.1.15,2013-05-15 14:02:00,
2013-05-15 10:03:00,71.7,53.7,29.94,SSW,206,1.0,5.0,53,0.00,,,0.00,Wunderground v.1.15,2013-05-15 14:03:00,
2013-05-15 10:04:00,71.7,54.2,29.94,SW,234,1.0,5.0,54,0.00,,,0.00,Wunderground v.1.15,2013-05-15 14:04:00,
2013-05-15 10:05:00,71.7,53.7,29.94,SW,234,1.0,5.0,53,0.00,,,0.00,Wunderground v.1.15,2013-05-15 14:05:00,
2013-05-15 10:06:00,71.7,54.2,29.94,West,277,1.0,5.0,54,0.00,,,0.00,Wunderground v.1.15,2013-05-15 14:06:00,
2013-05-15 10:07:00,71.6,54.1,29.94,SW,216,1.0,5.0,54,0.00,,,0.00,Wunderground v.1.15,2013-05-15 14:07:00,
2013-05-15 10:08:00,71.6,53.6,29.94,WSW,242,1.0,5.0,53,0.00,,,0.00,Wunderground v.1.15,2013-05-15 14:08:00,
2013-05-15 10:09:00,71.5,54.0,29.94,SW,217,1.0,5.0,54,0.00,,,0.00,Wunderground v.1.15,2013-05-15 14:09:00,
2013-05-15 10:10:00,71.5,54.0,29.94,WSW,245,2.0,3.0,54,0.00,,,0.00,Wunderground v.1.15,2013-05-15 14:10:00,
2013-05-15 10:11:00,71.5,54.0,29.94,NW,315,2.0,3.0,54,0.00,,,0.00,Wunderground v.1.15,2013-05-15 14:11:00,
2013-05-15 10:12:00,71.5,53.5,29.94,WSW,250,2.0,3.0,53,0.00,,,0.00,Wunderground v.1.15,2013-05-15 14:12:00,
2013-05-15 10:13:00,71.5,54.0,29.94,WSW,250,2.0,3.0,54,0.00,,,0.00,Wunderground v.1.15,2013-05-15 14:13:00,
2013-05-15 10:14:00,71.5,53.5,29.94,WSW,248,1.0,3.0,53,0.00,,,0.00,Wunderground v.1.15,2013-05-15 14:14:00,
2013-05-15 10:15:00,71.4,53.9,29.94,South,174,1.0,3.0,54,0.00,,,0.00,Wunderground v.1.15,2013-05-15 14:15:00,
2013-05-15 10:16:00,71.4,54.4,29.94,SW,232,1.0,3.0,55,0.00,,,0.00,Wunderground v.1.15,2013-05-15 14:16:00,
2013-05-15 10:17:00,71.5,53.5,29.94,WSW,253,1.0,4.0,53,0.00,,,0.00,Wunderground v.1.15,2013-05-15 14:17:00,
2013-05-15 10:18:00,71.5,53.5,29.94,SW,228,2.0,4.0,53,0.00,,,0.00,Wunderground v.1.15,2013-05-15 14:18:00,
2013-05-15 10:19:00,71.5,53.5,29.94,SW,219,2.0,4.0,53,0.00,,,0.00,Wunderground v.1.15,2013-05-15 14:19:00,
2013-05-15 10:20:00,71.5,53.5,29.94,SW,216,2.0,2.0,53,0.00,,,0.00,Wunderground v.1.15,2013-05-15 14:20:00,
2013-05-15 10:21:00,71.5,54.0,29.94,SSW,211,1.0,2.0,54,0.00,,,0.00,Wunderground v.1.15,2013-05-15 14:21:00,
2013-05-15 10:22:00,71.5,54.0,29.94,West,265,1.0,3.0,54,0.00,,,0.00,Wunderground v.1.15,2013-05-15 14:22:00,
2013-05-15 10:23:00,71.5,54.0,29.94,SSW,204,2.0,6.0,54,0.00,,,0.00,Wunderground v.1.15,2013-05-15 14:23:00,
2013-05-15 10:24:00,71.5,53.5,29.94,WSW,249,2.0,6.0,53,0.00,,,0.00,Wunderground v.1.15,2013-05-15 14:24:00,
2013-05-15 10:25:00,71.5,54.0,29.94,South,171,2.0,6.0,54,0.00,,,0.00,Wunderground v.1.15,2013-05-15 14:25:00,
2013-05-15 10:26:00,71.5,54.0,29.94,WSW,253,2.0,6.0,54,0.00,,,0.00,Wunderground v.1.15,2013-05-15 14:26:00,
2013-05-15 10:27:00,71.5,54.0,29.94,SSW,213,2.0,6.0,54,0.00,,,0.00,Wunderground v.1.15,2013-05-15 14:27:00,
2013-05-15 10:28:00,71.5,54.0,29.94,SW,215,2.0,6.0,54,0.00,,,0.00,Wunderground v.1.15,2013-05-15 14:28:00,
2013-05-15 10:29:00,71.5,54.0,29.94,SW,231,2.0,6.0,54,0.00,,,0.00,Wunderground v.1.15,2013-05-15 14:29:00,
2013-05-15 10:30:00,71.5,54.0,29.94,WSW,247,2.0,2.0,54,0.00,,,0.00,Wunderground v.1.15,2013-05-15 14:30:00,
2013-05-15 10:31:00,71.5,54.0,29.94,SSW,194,2.0,6.0,54,0.00,,,0.00,Wunderground v.1.15,2013-05-15 14:31:00,
2013-05-15 10:32:00,71.5,53.5,29.94,SW,218,2.0,6.0,53,0.00,,,0.00,Wunderground v.1.15,2013-05-15 14:32:00,
2013-05-15 10:33:00,71.5,54.0,29.94,WNW,298,2.0,6.0,54,0.00,,,0.00,Wunderground v.1.15,2013-05-15 14:33:00,
2013-05-15 10:34:00,71.5,54.0,29.94,SW,233,2.0,6.0,54,0.00,,,0.00,Wunderground v.1.15,2013-05-15 14:34:00,
2013-05-15 10:35:00,71.5,53.5,29.94,SW,236,2.0,6.0,53,0.00,,,0.00,Wunderground v.1.15,2013-05-15 14:35:00,
2013-05-15 10:36:00,71.5,54.0,29.94,SW,216,2.0,6.0,54,0.00,,,0.00,Wunderground v.1.15,2013-05-15 14:36:00,
2013-05-15 10:37:00,71.5,54.0,29.94,West,265,3.0,6.0,54,0.00,,,0.00,Wunderground v.1.15,2013-05-15 14:37:00,
2013-05-15 10:38:00,71.5,54.5,29.94,SSW,207,3.0,6.0,55,0.00,,,0.00,Wunderground v.1.15,2013-05-15 14:38:00,
2013-05-15 10:39:00,71.4,53.9,29.94,SSW,200,3.0,6.0,54,0.00,,,0.00,Wunderground v.1.15,2013-05-15 14:39:00,
2013-05-15 10:40:00,71.3,54.3,29.94,West,260,2.0,2.0,55,0.00,,,0.00,Wunderground v.1.15,2013-05-15 14:40:00,
2013-05-15 10:41:00,71.3,54.3,29.94,NW,308,2.0,3.0,55,0.00,,,0.00,Wunderground v.1.15,2013-05-15 14:41:00,
2013-05-15 10:42:00,71.3,53.8,29.95,SSW,206,2.0,3.0,54,0.00,,,0.00,Wunderground v.1.15,2013-05-15 14:42:00,
2013-05-15 10:43:00,71.3,53.8,29.94,WNW,289,2.0,3.0,54,0.00,,,0.00,Wunderground v.1.15,2013-05-15 14:43:00,
2013-05-15 10:44:00,71.3,53.3,29.94,SW,224,2.0,3.0,53,0.00,,,0.00,Wunderground v.1.15,2013-05-15 14:44:00,
2013-05-15 10:45:00,71.3,53.8,29.94,SSE,153,2.0,3.0,54,0.00,,,0.00,Wunderground v.1.15,2013-05-15 14:45:00,
2013-05-15 10:46:00,71.4,53.4,29.95,WSW,243,2.0,3.0,53,0.00,,,0.00,Wunderground v.1.15,2013-05-15 14:46:00,
2013-05-15 10:47:00,71.4,54.4,29.95,West,263,2.0,3.0,55,0.00,,,0.00,Wunderground v.1.15,2013-05-15 14:47:00,
2013-05-15 10:48:00,71.3,54.3,29.95,SSW,198,2.0,3.0,55,0.00,,,0.00,Wunderground v.1.15,2013-05-15 14:48:00,
2013-05-15 10:49:00,71.3,54.8,29.95,WNW,292,2.0,3.0,56,0.00,,,0.00,Wunderground v.1.15,2013-05-15 14:49:00,
2013-05-15 10:50:00,71.2,54.2,29.95,West,281,2.0,3.0,55,0.00,,,0.00,Wunderground v.1.15,2013-05-15 14:50:00,
2013-05-15 10:51:00,71.2,53.7,29.95,WNW,298,2.0,4.0,54,0.00,,,0.00,Wunderground v.1.15,2013-05-15 14:51:00,
2013-05-15 10:52:00,71.2,53.2,29.95,SSW,203,2.0,5.0,53,0.00,,,0.00,Wunderground v.1.15,2013-05-15 14:52:00,
2013-05-15 10:53:00,71.2,53.2,29.95,SW,229,2.0,5.0,53,0.00,,,0.00,Wunderground v.1.15,2013-05-15 14:53:00,
2013-05-15 10:54:00,71.2,53.7,29.95,SSW,213,2.0,5.0,54,0.00,,,0.00,Wunderground v.1.15,2013-05-15 14:54:00,
2013-05-15 10:55:00,71.2,54.2,29.95,West,275,2.0,5.0,55,0.00,,,0.00,Wunderground v.1.15,2013-05-15 14:55:00,
2013-05-15 10:56:00,71.2,54.2,29.95,WSW,243,2.0,5.0,55,0.00,,,0.00,Wunderground v.1.15,2013-05-15 14:56:00,
2013-05-15 10:57:00,71.1,53.6,29.95,SSE,167,2.0,5.0,54,0.00,,,0.00,Wunderground v.1.15,2013-05-15 14:57:00,
2013-05-15 10:58:00,71.1,54.6,29.95,West,280,2.0,5.0,56,0.00,,,0.00,Wunderground v.1.15,2013-05-15 14:58:00,
2013-05-15 10:59:00,71.0,54.0,29.95,WSW,254,2.0,5.0,55,0.00,,,0.00,Wunderground v.1.15,2013-05-15 14:59:00,
2013-05-15 11:00:00,71.0,53.5,29.95,SW,228,2.0,2.0,54,0.00,,,0.00,Wunderground v.1.15,2013-05-15 15:00:00,
2013-05-15 11:01:00,70.9,54.4,29.95,WSW,255,2.0,3.0,56,0.00,,,0.00,Wunderground v.1.15,2013-05-15 15:01:00,
2013-05-15 11:02:00,70.9,53.9,29.95,NW,310,2.0,3.0,55,0.00,,,0.00,Wunderground v.1.15,2013-05-15 15:02:00,
2013-05-15 11:03:00,70.8,54.3,29.95,SSW,209,2.0,3.0,56,0.00,,,0.00,Wunderground v.1.15,2013-05-15 15:03:00,
2013-05-15 11:04:00,70.8,53.8,29.95,SSW,204,2.0,4.0,55,0.00,,,0.00,Wunderground v.1.15,2013-05-15 15:04:00,
2013-05-15 11:05:00,70.8,53.8,29.95,SSW,211,2.0,4.0,55,0.00,,,0.00,Wunderground v.1.15,2013-05-15 15:05:00,
2013-05-15 11:06:00,70.8,54.3,29.95,NNW,327,2.0,4.0,56,0.00,,,0.00,Wunderground v.1.15,2013-05-15 15:06:00,
2013-05-15 11:07:00,70.8,54.3,29.95,NNW,347,2.0,4.0,56,0.00,,,0.00,Wunderground v.1.15,2013-05-15 15:07:00,
2013-05-15 11:08:00,70.7,54.2,29.95,West,271,2.0,4.0,56,0.00,,,0.00,Wunderground v.1.15,2013-05-15 15:08:00,
2013-05-15 11:09:00,70.7,54.2,29.95,SSW,200,2.0,4.0,56,0.00,,,0.00,Wunderground v.1.15,2013-05-15 15:09:00,
2013-05-15 11:10:00,70.6,54.1,29.95,WSW,239,2.0,5.0,56,0.00,,,0.00,Wunderground v.1.15,2013-05-15 15:10:00,
2013-05-15 11:11:00,70.6,53.6,29.95,WNW,290,2.0,5.0,55,0.00,,,0.00,Wunderground v.1.15,2013-05-15 15:11:00,
2013-05-15 11:12:00,70.6,54.1,29.95,West,265,2.0,5.0,56,0.00,,,0.00,Wunderground v.1.15,2013-05-15 15:12:00,
2013-05-15 11:13:00,70.6,54.1,29.95,SSE,159,2.0,5.0,56,0.00,,,0.00,Wunderground v.1.15,2013-05-15 15:13:00,
2013-05-15 11:14:00,70.5,54.0,29.95,WSW,242,2.0,5.0,56,0.00,,,0.00,Wunderground v.1.15,2013-05-15 15:14:00,
2013-05-15 11:15:00,70.5,53.6,29.95,SSW,202,2.0,5.0,55,0.00,,,0.00,Wunderground v.1.15,2013-05-15 15:15:00,
2013-05-15 11:16:00,78.7,60.7,30.01,SSE,161,3.0,10.0,54,0.00,,,0.00,Wunderground v.1.15,2013-05-15 15:16:00,
2013-05-15 11:17:00,70.4,53.5,29.95,SSW,201,2.0,5.0,55,0.00,,,0.00,Wunderground v.1.15,2013-05-15 15:17:00,
2013-05-15 11:18:00,70.4,54.0,29.95,SSW,209,1.0,5.0,56,0.00,,,0.00,Wunderground v.1.15,2013-05-15 15:18:00,
2013-05-15 11:19:00,70.4,54.0,29.95,South,191,1.0,5.0,56,0.00,,,0.00,Wunderground v.1.15,2013-05-15 15:19:00,
2013-05-15 11:20:00,70.3,53.9,29.95,SW,236,1.0,5.0,56,0.00,,,0.00,Wunderground v.1.15,2013-05-15 15:20:00,
2013-05-15 11:21:00,70.3,53.9,29.95,WSW,240,1.0,5.0,56,0.00,,,0.00,Wunderground v.1.15,2013-05-15 15:21:00,
2013-05-15 11:22:00,70.2,53.8,29.95,SW,223,1.0,5.0,56,0.00,,,0.00,Wunderground v.1.15,2013-05-15 15:22:00,
2013-05-15 11:23:00,70.2,54.2,29.95,SW,223,1.0,5.0,57,0.00,,,0.00,Wunderground v.1.15,2013-05-15 15:23:00,
2013-05-15 11:24:00,70.1,53.7,29.95,WNW,300,1.0,5.0,56,0.00,,,0.00,Wunderground v.1.15,2013-05-15 15:24:00,
2013-05-15 11:25:00,70.1,53.7,29.95,WNW,296,1.0,5.0,56,0.00,,,0.00,Wunderground v.1.15,2013-05-15 15:25:00,
2013-05-15 11:26:00,70.1,53.7,29.95,SW,228,1.0,5.0,56,0.00,,,0.00,Wunderground v.1.15,2013-05-15 15:26:00,
2013-05-15 11:27:00,70.1,53.7,29.95,WSW,240,1.0,5.0,56,0.00,,,0.00,Wunderground v.1.15,2013-05-15 15:27:00,
2013-05-15 11:28:00,70.0,53.6,29.95,NW,311,1.0,5.0,56,0.00,,,0.00,Wunderground v.1.15,2013-05-15 15:28:00,
2013-05-15 11:29:00,70.0,54.1,29.95,WSW,241,1.0,5.0,57,0.00,,,0.00,Wunderground v.1.15,2013-05-15 15:29:00,
2013-05-15 11:30:00,70.0,54.5,29.95,West,265,1.0,1.0,58,0.00,,,0.00,Wunderground v.1.15,2013-05-15 15:30:00,
2013-05-15 11:31:00,69.9,54.0,29.95,West,266,1.0,1.0,57,0.00,,,0.00,Wunderground v.1.15,2013-05-15 15:31:00,
2013-05-15 11:32:00,69.9,54.0,29.95,WSW,256,1.0,1.0,57,0.00,,,0.00,Wunderground v.1.15,2013-05-15 15:32:00,
2013-05-15 11:33:00,69.8,53.9,29.94,SSW,192,1.0,3.0,57,0.00,,,0.00,Wunderground v.1.15,2013-05-15 15:33:00,
2013-05-15 11:34:00,69.7,53.8,29.94,WSW,248,1.0,3.0,57,0.00,,,0.00,Wunderground v.1.15,2013-05-15 15:34:00,
2013-05-15 11:35:00,69.7,53.8,29.94,WSW,248,1.0,3.0,57,0.00,,,0.00,Wunderground v.1.15,2013-05-15 15:35:00,
2013-05-15 11:36:00,69.6,53.7,29.94,South,188,1.0,4.0,57,0.00,,,0.00,Wunderground v.1.15,2013-05-15 15:36:00,
2013-05-15 11:37:00,69.6,53.7,29.94,SSW,202,1.0,4.0,57,0.00,,,0.00,Wunderground v.1.15,2013-05-15 15:37:00,
2013-05-15 11:38:00,69.5,53.6,29.94,WNW,286,1.0,4.0,57,0.00,,,0.00,Wunderground v.1.15,2013-05-15 15:38:00,
2013-05-15 11:39:00,69.4,54.0,29.94,West,261,1.0,4.0,58,0.00,,,0.00,Wunderground v.1.15,2013-05-15 15:39:00,
2013-05-15 11:40:00,69.3,53.9,29.94,West,260,1.0,1.0,58,0.00,,,0.00,Wunderground v.1.15,2013-05-15 15:40:00,
2013-05-15 11:41:00,69.3,53.9,29.94,WNW,284,1.0,1.0,58,0.00,,,0.00,Wunderground v.1.15,2013-05-15 15:41:00,
2013-05-15 11:42:00,69.2,53.3,29.94,WNW,284,1.0,1.0,57,0.00,,,0.00,Wunderground v.1.15,2013-05-15 15:42:00,
2013-05-15 11:43:00,69.2,53.8,29.94,SW,224,1.0,1.0,58,0.00,,,0.00,Wunderground v.1.15,2013-05-15 15:43:00,
2013-05-15 11:44:00,69.1,53.7,29.94,SW,225,1.0,2.0,58,0.00,,,0.00,Wunderground v.1.15,2013-05-15 15:44:00,
2013-05-15 11:45:00,69.0,53.1,29.94,SW,226,1.0,2.0,57,0.00,,,0.00,Wunderground v.1.15,2013-05-15 15:45:00,
2013-05-15 11:46:00,69.0,53.6,29.94,West,265,1.0,2.0,58,0.00,,,0.00,Wunderground v.1.15,2013-05-15 15:46:00,
2013-05-15 11:47:00,68.9,53.5,29.94,West,265,1.0,2.0,58,0.00,,,0.00,Wunderground v.1.15,2013-05-15 15:47:00,
2013-05-15 11:48:00,68.8,53.4,29.94,West,265,1.0,2.0,58,0.00,,,0.00,Wunderground v.1.15,2013-05-15 15:48:00,
2013-05-15 11:49:00,68.8,52.9,29.94,SSW,209,1.0,2.0,57,0.00,,,0.00,Wunderground v.1.15,2013-05-15 15:49:00,
2013-05-15 11:50:00,68.7,53.3,29.94,SSW,213,1.0,2.0,58,0.00,,,0.00,Wunderground v.1.15,2013-05-15 15:50:00,
2013-05-15 11:51:00,68.8,52.9,29.94,SSW,213,1.0,2.0,57,0.00,,,0.00,Wunderground v.1.15,2013-05-15 15:51:00,
2013-05-15 11:52:00,68.7,52.8,29.94,SW,223,1.0,2.0,57,0.00,,,0.00,Wunderground v.1.15,2013-05-15 15:52:00,
2013-05-15 11:54:00,68.7,53.3,29.94,West,281,1.0,2.0,58,0.00,,,0.00,Wunderground v.1.15,2013-05-15 15:54:00,
2013-05-15 11:55:00,68.6,52.8,29.94,West,278,1.0,2.0,57,0.00,,,0.00,Wunderground v.1.15,2013-05-15 15:55:00,
2013-05-15 11:56:00,68.6,53.2,29.94,SSE,153,1.0,2.0,58,0.00,,,0.00,Wunderground v.1.15,2013-05-15 15:56:00,
2013-05-15 11:57:00,68.6,53.2,29.94,SW,220,1.0,2.0,58,0.00,,,0.00,Wunderground v.1.15,2013-05-15 15:57:00,
2013-05-15 11:58:00,68.5,52.7,29.93,SSW,200,1.0,2.0,57,0.00,,,0.00,Wunderground v.1.15,2013-05-15 15:58:00,
2013-05-15 11:59:00,68.5,52.7,29.93,SSW,202,1.0,2.0,57,0.00,,,0.00,Wunderground v.1.15,2013-05-15 15:59:00,
2013-05-15 12:00:00,68.5,52.7,29.94,SSW,202,1.0,1.0,57,0.00,,,0.00,Wunderground v.1.15,2013-05-15 16:00:00,
2013-05-15 12:01:00,68.5,52.7,29.93,SW,216,1.0,6.0,57,0.00,,,0.00,Wunderground v.1.15,2013-05-15 16:01:00,
2013-05-15 12:02:00,68.4,53.0,29.93,WSW,237,1.0,6.0,58,0.00,,,0.00,Wunderground v.1.15,2013-05-15 16:02:00,
2013-05-15 12:03:00,68.4,52.6,29.93,WSW,237,1.0,6.0,57,0.00,,,0.00,Wunderground v.1.15,2013-05-15 16:03:00,
2013-05-15 12:04:00,68.3,52.9,29.93,SW,234,1.0,6.0,58,0.00,,,0.00,Wunderground v.1.15,2013-05-15 16:04:00,
2013-05-15 12:05:00,68.3,52.5,29.93,SSW,193,1.0,6.0,57,0.00,,,0.00,Wunderground v.1.15,2013-05-15 16:05:00,
2013-05-15 12:06:00,68.3,52.9,29.93,SW,231,1.0,6.0,58,0.00,,,0.00,Wunderground v.1.15,2013-05-15 16:06:00,
2013-05-15 12:07:00,68.2,52.4,29.93,SSW,213,1.0,6.0,57,0.00,,,0.00,Wunderground v.1.15,2013-05-15 16:07:00,
2013-05-15 12:08:00,68.1,53.2,29.93,WSW,250,1.0,6.0,59,0.00,,,0.00,Wunderground v.1.15,2013-05-15 16:08:00,
2013-05-15 12:09:00,68.1,53.2,29.93,SW,221,2.0,6.0,59,0.00,,,0.00,Wunderground v.1.15,2013-05-15 16:09:00,
2013-05-15 12:10:00,68.0,52.7,29.93,West,272,2.0,12.0,58,0.00,,,0.00,Wunderground v.1.15,2013-05-15 16:10:00,
2013-05-15 12:11:00,68.0,52.7,29.93,SSW,211,2.0,12.0,58,0.00,,,0.00,Wunderground v.1.15,2013-05-15 16:11:00,
2013-05-15 12:12:00,68.0,52.7,29.93,NW,318,2.0,12.0,58,0.00,,,0.00,Wunderground v.1.15,2013-05-15 16:12:00,
2013-05-15 12:13:00,68.0,52.7,29.93,North,5,2.0,12.0,58,0.00,,,0.00,Wunderground v.1.15,2013-05-15 16:13:00,
2013-05-15 12:14:00,68.0,52.2,29.93,WSW,250,2.0,12.0,57,0.00,,,0.00,Wunderground v.1.15,2013-05-15 16:14:00,
2013-05-15 12:15:00,68.0,52.2,29.93,SSE,158,3.0,12.0,57,0.00,,,0.00,Wunderground v.1.15,2013-05-15 16:15:00,
2013-05-15 12:16:00,68.1,52.8,29.93,SW,236,3.0,12.0,58,0.00,,,0.00,Wunderground v.1.15,2013-05-15 16:16:00,
2013-05-15 12:17:00,68.1,52.8,29.93,West,274,3.0,12.0,58,0.00,,,0.00,Wunderground v.1.15,2013-05-15 16:17:00,
2013-05-15 12:18:00,68.0,53.1,29.93,SW,222,3.0,12.0,59,0.00,,,0.00,Wunderground v.1.15,2013-05-15 16:18:00,
2013-05-15 12:19:00,68.0,52.2,29.93,WSW,249,3.0,12.0,57,0.00,,,0.00,Wunderground v.1.15,2013-05-15 16:19:00,
2013-05-15 12:20:00,68.0,52.7,29.93,NNW,334,3.0,4.0,58,0.00,,,0.00,Wunderground v.1.15,2013-05-15 16:20:00,
2013-05-15 12:21:00,68.0,52.2,29.93,SSW,198,3.0,4.0,57,0.00,,,0.00,Wunderground v.1.15,2013-05-15 16:21:00,
2013-05-15 12:22:00,68.1,52.8,29.93,WNW,291,3.0,4.0,58,0.00,,,0.00,Wunderground v.1.15,2013-05-15 16:22:00,
2013-05-15 12:23:00,68.1,52.3,29.93,West,267,3.0,7.0,57,0.00,,,0.00,Wunderground v.1.15,2013-05-15 16:23:00,
2013-05-15 12:24:00,68.1,52.3,29.93,SW,216,3.0,7.0,57,0.00,,,0.00,Wunderground v.1.15,2013-05-15 16:24:00,
2013-05-15 12:25:00,68.2,52.4,29.93,SW,235,3.0,7.0,57,0.00,,,0.00,Wunderground v.1.15,2013-05-15 16:25:00,
2013-05-15 12:26:00,68.2,52.9,29.93,SW,235,2.0,7.0,58,0.00,,,0.00,Wunderground v.1.15,2013-05-15 16:26:00,
2013-05-15 12:27:00,68.1,52.8,29.93,South,179,2.0,7.0,58,0.00,,,0.00,Wunderground v.1.15,2013-05-15 16:27:00,
2013-05-15 12:28:00,68.1,51.3,29.93,SW,222,2.0,7.0,55,0.00,,,0.00,Wunderground v.1.15,2013-05-15 16:28:00,
2013-05-15 12:29:00,68.1,52.3,29.93,SSE,168,2.0,7.0,57,0.00,,,0.00,Wunderground v.1.15,2013-05-15 16:29:00,
2013-05-15 12:30:00,68.1,51.8,29.93,West,260,2.0,2.0,56,0.00,,,0.00,Wunderground v.1.15,2013-05-15 16:30:00,
2013-05-15 12:31:00,68.1,51.3,29.93,WSW,242,2.0,2.0,55,0.00,,,0.00,Wunderground v.1.15,2013-05-15 16:31:00,
2013-05-15 12:32:00,68.1,51.8,29.93,West,277,2.0,4.0,56,0.00,,,0.00,Wunderground v.1.15,2013-05-15 16:32:00,
2013-05-15 12:33:00,68.1,51.8,29.93,WSW,238,2.0,4.0,56,0.00,,,0.00,Wunderground v.1.15,2013-05-15 16:33:00,
2013-05-15 12:34:00,68.1,51.8,29.93,WNW,286,2.0,4.0,56,0.00,,,0.00,Wunderground v.1.15,2013-05-15 16:34:00,
2013-05-15 12:35:00,68.1,52.3,29.93,West,263,2.0,4.0,57,0.00,,,0.00,Wunderground v.1.15,2013-05-15 16:35:00,
2013-05-15 12:36:00,68.1,51.8,29.93,West,259,2.0,4.0,56,0.00,,,0.00,Wunderground v.1.15,2013-05-15 16:36:00,
2013-05-15 12:37:00,68.0,51.7,29.93,SW,216,2.0,4.0,56,0.00,,,0.00,Wunderground v.1.15,2013-05-15 16:37:00,
2013-05-15 12:38:00,68.0,51.7,29.93,WSW,257,2.0,4.0,56,0.00,,,0.00,Wunderground v.1.15,2013-05-15 16:38:00,
2013-05-15 12:39:00,67.9,51.1,29.93,WSW,250,2.0,4.0,55,0.00,,,0.00,Wunderground v.1.15,2013-05-15 16:39:00,
2013-05-15 12:40:00,67.9,51.1,29.93,West,261,2.0,2.0,55,0.00,,,0.00,Wunderground v.1.15,2013-05-15 16:40:00,
2013-05-15 12:41:00,67.9,51.6,29.93,SW,224,2.0,2.0,56,0.00,,,0.00,Wunderground v.1.15,2013-05-15 16:41:00,
2013-05-15 12:42:00,67.8,51.5,29.93,SW,229,2.0,4.0,56,0.00,,,0.00,Wunderground v.1.15,2013-05-15 16:42:00,
2013-05-15 12:43:00,67.8,51.0,29.93,SW,234,2.0,5.0,55,0.00,,,0.00,Wunderground v.1.15,2013-05-15 16:43:00,
2013-05-15 12:44:00,67.8,51.5,29.93,SW,221,2.0,5.0,56,0.00,,,0.00,Wunderground v.1.15,2013-05-15 16:44:00,
2013-05-15 12:45:00,67.8,52.0,29.93,WSW,258,2.0,5.0,57,0.00,,,0.00,Wunderground v.1.15,2013-05-15 16:45:00,
2013-05-15 12:46:00,67.7,51.9,29.93,West,270,2.0,5.0,57,0.00,,,0.00,Wunderground v.1.15,2013-05-15 16:46:00,
2013-05-15 12:47:00,67.7,51.4,29.93,WSW,238,2.0,5.0,56,0.00,,,0.00,Wunderground v.1.15,2013-05-15 16:47:00,
2013-05-15 12:48:00,67.6,51.3,29.93,West,273,2.0,5.0,56,0.00,,,0.00,Wunderground v.1.15,2013-05-15 16:48:00,
2013-05-15 12:49:00,67.6,51.8,29.93,West,273,2.0,5.0,57,0.00,,,0.00,Wunderground v.1.15,2013-05-15 16:49:00,
2013-05-15 12:50:00,67.6,51.3,29.93,West,269,2.0,3.0,56,0.00,,,0.00,Wunderground v.1.15,2013-05-15 16:50:00,
2013-05-15 12:51:00,67.6,50.9,29.93,West,274,2.0,3.0,55,0.00,,,0.00,Wunderground v.1.15,2013-05-15 16:51:00,
2013-05-15 12:52:00,67.6,50.9,29.94,West,262,2.0,3.0,55,0.00,,,0.00,Wunderground v.1.15,2013-05-15 16:52:00,
2013-05-15 12:53:00,67.7,50.5,29.94,SSW,199,2.0,3.0,54,0.00,,,0.00,Wunderground v.1.15,2013-05-15 16:53:00,
2013-05-15 12:54:00,67.7,51.4,29.93,South,169,2.0,5.0,56,0.00,,,0.00,Wunderground v.1.15,2013-05-15 16:54:00,
2013-05-15 12:55:00,67.8,51.0,29.93,WSW,258,2.0,5.0,55,0.00,,,0.00,Wunderground v.1.15,2013-05-15 16:55:00,
2013-05-15 12:56:00,67.8,51.0,29.93,WSW,258,2.0,5.0,55,0.00,,,0.00,Wunderground v.1.15,2013-05-15 16:56:00,
2013-05-15 12:57:00,67.8,51.0,29.93,South,190,2.0,5.0,55,0.00,,,0.00,Wunderground v.1.15,2013-05-15 16:57:00,
2013-05-15 12:58:00,67.8,51.0,29.93,WNW,285,3.0,5.0,55,0.00,,,0.00,Wunderground v.1.15,2013-05-15 16:58:00,
2013-05-15 12:59:00,67.9,51.1,29.93,West,267,2.0,5.0,55,0.00,,,0.00,Wunderground v.1.15,2013-05-15 16:59:00,
2013-05-15 13:00:00,67.9,51.1,29.93,West,269,3.0,3.0,55,0.00,,,0.00,Wunderground v.1.15,2013-05-15 17:00:00,
2013-05-15 13:01:00,67.9,51.6,29.93,WSW,255,2.0,3.0,56,0.00,,,0.00,Wunderground v.1.15,2013-05-15 17:01:00,
2013-05-15 13:02:00,67.8,51.5,29.93,WSW,255,2.0,3.0,56,0.00,,,0.00,Wunderground v.1.15,2013-05-15 17:02:00,
2013-05-15 13:03:00,67.8,51.0,29.93,West,260,2.0,3.0,55,0.00,,,0.00,Wunderground v.1.15,2013-05-15 17:03:00,
2013-05-15 13:04:00,67.7,51.4,29.93,West,260,2.0,3.0,56,0.00,,,0.00,Wunderground v.1.15,2013-05-15 17:04:00,
2013-05-15 13:05:00,67.6,51.3,29.94,WSW,243,1.0,3.0,56,0.00,,,0.00,Wunderground v.1.15,2013-05-15 17:05:00,
2013-05-15 13:06:00,67.6,50.9,29.94,WSW,246,1.0,3.0,55,0.00,,,0.00,Wunderground v.1.15,2013-05-15 17:06:00,
2013-05-15 13:07:00,67.5,51.2,29.94,West,280,2.0,3.0,56,0.00,,,0.00,Wunderground v.1.15,2013-05-15 17:07:00,
2013-05-15 13:08:00,67.5,50.3,29.94,West,280,1.0,3.0,54,0.00,,,0.00,Wunderground v.1.15,2013-05-15 17:08:00,
2013-05-15 13:09:00,67.4,51.6,29.94,WSW,249,1.0,3.0,57,0.00,,,0.00,Wunderground v.1.15,2013-05-15 17:09:00,
2013-05-15 13:10:00,67.4,50.7,29.94,SW,235,1.0,3.0,55,0.00,,,0.00,Wunderground v.1.15,2013-05-15 17:10:00,
2013-05-15 13:11:00,67.4,50.7,29.94,SW,234,1.0,3.0,55,0.00,,,0.00,Wunderground v.1.15,2013-05-15 17:11:00,
2013-05-15 13:12:00,67.4,50.7,29.94,SSW,213,1.0,3.0,55,0.00,,,0.00,Wunderground v.1.15,2013-05-15 17:12:00,
2013-05-15 13:13:00,67.4,50.7,29.94,South,188,1.0,3.0,55,0.00,,,0.00,Wunderground v.1.15,2013-05-15 17:13:00,
2013-05-15 13:14:00,67.5,50.8,29.94,South,188,1.0,3.0,55,0.00,,,0.00,Wunderground v.1.15,2013-05-15 17:14:00,
2013-05-15 13:15:00,67.4,50.7,29.94,WSW,254,1.0,3.0,55,0.00,,,0.00,Wunderground v.1.15,2013-05-15 17:15:00,
2013-05-15 13:16:00,67.5,51.7,29.94,WSW,256,1.0,3.0,57,0.00,,,0.00,Wunderground v.1.15,2013-05-15 17:16:00,
2013-05-15 13:17:00,67.4,50.7,29.94,WSW,256,1.0,3.0,55,0.00,,,0.00,Wunderground v.1.15,2013-05-15 17:17:00,
2013-05-15 13:18:00,67.4,51.2,29.94,SW,225,1.0,3.0,56,0.00,,,0.00,Wunderground v.1.15,2013-05-15 17:18:00,
2013-05-15 13:19:00,67.4,51.2,29.94,NW,305,1.0,3.0,56,0.00,,,0.00,Wunderground v.1.15,2013-05-15 17:19:00,
2013-05-15 13:20:00,67.3,51.1,29.94,NW,305,1.0,1.0,56,0.00,,,0.00,Wunderground v.1.15,2013-05-15 17:20:00,
2013-05-15 13:21:00,67.3,51.1,29.94,SSE,163,1.0,3.0,56,0.00,,,0.00,Wunderground v.1.15,2013-05-15 17:21:00,
2013-05-15 13:22:00,67.2,50.5,29.94,WSW,238,1.0,3.0,55,0.00,,,0.00,Wunderground v.1.15,2013-05-15 17:22:00,
2013-05-15 13:23:00,67.2,51.0,29.94,SW,221,1.0,3.0,56,0.00,,,0.00,Wunderground v.1.15,2013-05-15 17:23:00,
2013-05-15 13:24:00,67.1,50.4,29.94,SSE,156,1.0,3.0,55,0.00,,,0.00,Wunderground v.1.15,2013-05-15 17:24:00,
2013-05-15 13:25:00,67.1,50.4,29.94,SSW,200,1.0,3.0,55,0.00,,,0.00,Wunderground v.1.15,2013-05-15 17:25:00,
2013-05-15 13:26:00,67.1,50.9,29.94,SW,214,1.0,3.0,56,0.00,,,0.00,Wunderground v.1.15,2013-05-15 17:26:00,
2013-05-15 13:27:00,67.1,50.9,29.94,WNW,287,1.0,3.0,56,0.00,,,0.00,Wunderground v.1.15,2013-05-15 17:27:00,
2013-05-15 13:28:00,67.0,50.8,29.94,WNW,282,1.0,3.0,56,0.00,,,0.00,Wunderground v.1.15,2013-05-15 17:28:00,
2013-05-15 13:29:00,67.0,50.3,29.94,WSW,257,1.0,3.0,55,0.00,,,0.00,Wunderground v.1.15,2013-05-15 17:29:00,
2013-05-15 13:30:00,67.0,50.3,29.94,WSW,257,1.0,1.0,55,0.00,,,0.00,Wunderground v.1.15,2013-05-15 17:30:00,
2013-05-15 13:31:00,67.0,50.3,29.94,WSW,257,1.0,1.0,55,0.00,,,0.00,Wunderground v.1.15,2013-05-15 17:31:00,
2013-05-15 13:32:00,67.0,50.8,29.94,West,267,1.0,1.0,56,0.00,,,0.00,Wunderground v.1.15,2013-05-15 17:32:00,
2013-05-15 13:35:00,66.8,50.6,29.94,SSW,196,1.0,4.0,56,0.00,,,0.00,Wunderground v.1.15,2013-05-15 17:35:00,
2013-05-15 13:37:00,66.8,50.6,29.94,WSW,246,1.0,4.0,56,0.00,,,0.00,Wunderground v.1.15,2013-05-15 17:37:00,
2013-05-15 13:39:00,66.8,50.1,29.94,WSW,250,1.0,4.0,55,0.00,,,0.00,Wunderground v.1.15,2013-05-15 17:39:00,
2013-05-15 13:40:00,66.8,50.6,29.94,SSE,163,1.0,1.0,56,0.00,,,0.00,Wunderground v.1.15,2013-05-15 17:40:00,
2013-05-15 13:41:00,66.8,50.6,29.94,SSE,164,1.0,1.0,56,0.00,,,0.00,Wunderground v.1.15,2013-05-15 17:41:00,
2013-05-15 13:42:00,66.7,50.5,29.94,WSW,251,1.0,1.0,56,0.00,,,0.00,Wunderground v.1.15,2013-05-15 17:42:00,
2013-05-15 13:43:00,66.7,50.5,29.94,WSW,244,1.0,1.0,56,0.00,,,0.00,Wunderground v.1.15,2013-05-15 17:43:00,
2013-05-15 13:44:00,66.7,50.5,29.94,WSW,244,1.0,1.0,56,0.00,,,0.00,Wunderground v.1.15,2013-05-15 17:44:00,
2013-05-15 13:45:00,66.7,50.5,29.94,WSW,254,1.0,1.0,56,0.00,,,0.00,Wunderground v.1.15,2013-05-15 17:45:00,
2013-05-15 13:46:00,66.7,50.5,29.94,SW,226,1.0,1.0,56,0.00,,,0.00,Wunderground v.1.15,2013-05-15 17:46:00,
2013-05-15 13:47:00,66.7,50.5,29.94,SSW,211,1.0,1.0,56,0.00,,,0.00,Wunderground v.1.15,2013-05-15 17:47:00,
2013-05-15 13:48:00,66.7,50.5,29.94,WSW,238,1.0,1.0,56,0.00,,,0.00,Wunderground v.1.15,2013-05-15 17:48:00,
2013-05-15 13:50:00,66.6,50.4,29.94,SSW,213,1.0,1.0,56,0.00,,,0.00,Wunderground v.1.15,2013-05-15 17:50:00,
2013-05-15 13:51:00,66.5,50.8,29.94,SSE,155,1.0,1.0,57,0.00,,,0.00,Wunderground v.1.15,2013-05-15 17:51:00,
2013-05-15 13:52:00,66.5,50.8,29.94,SSE,155,1.0,1.0,57,0.00,,,0.00,Wunderground v.1.15,2013-05-15 17:52:00,
2013-05-15 13:55:00,66.3,51.1,29.94,SSE,151,1.0,1.0,58,0.00,,,0.00,Wunderground v.1.15,2013-05-15 17:55:00,
2013-05-15 13:56:00,66.3,51.1,29.94,SSE,151,1.0,1.0,58,0.00,,,0.00,Wunderground v.1.15,2013-05-15 17:56:00,
2013-05-15 13:57:00,66.2,50.5,29.94,SSE,151,0.0,1.0,57,0.00,,,0.00,Wunderground v.1.15,2013-05-15 17:57:00,
2013-05-15 14:05:00,65.9,50.2,29.94,WSW,249,1.0,3.0,57,0.00,,,0.00,Wunderground v.1.15,2013-05-15 18:05:00,
2013-05-15 14:22:00,65.3,50.6,29.94,South,190,1.0,4.0,59,0.00,,,0.00,Wunderground v.1.15,2013-05-15 18:22:00,
2013-05-15 15:29:00,86.3,56.2,29.95,SSW,196,4.0,7.0,36,0.00,,,0.00,Wunderground v.1.15,2013-05-15 19:29:00,
2013-05-15 15:37:00,86.2,53.7,29.95,SW,236,4.0,5.0,33,0.00,,,0.00,Wunderground v.1.15,2013-05-15 19:37:00,